viewing profile for tman
back to index




tman
mbti INTP
enneagram 5w4/1w9/4w5 Sp/Sx
sociotype ILI
id: 233
date created 2018-11-16 01:34:45am
user level member
mbtiidr/functionenneavariantssociotritype®
Laozi as 9w1 on 2021-01-15 17:01:38pm
Traditionalist conservatism as 6w5 on 2021-01-15 12:39:49pm
Rocky Balboa as 9w8 on 2021-01-15 11:42:44am
Neil "Lemon Demon" Cicierega as 5w4 on 2021-01-14 16:12:11pm
Puritanism as 1wb on 2021-01-13 18:52:05pm
Mercedes as 2w1 on 2021-01-13 17:50:52pm
Most likely to take notes on everything because of their bad memory as 7w6 on 2021-01-11 13:32:12pm
Sikhism as 1wb on 2021-01-11 13:00:41pm
Hannes (Abridged) as 9w8 on 2021-01-11 11:28:13am
Eren Yeager (Abridged) as cp6w7 on 2021-01-11 11:27:17am
Theodore "Hickey" Hickman as 7w6 on 2021-01-10 15:34:02pm
Larry Slade as 5w4 on 2021-01-10 13:57:55pm
Kitty Horrorshow as 4w5 on 2021-01-09 20:55:46pm
Din "Mando" Djarin as 6w5 on 2021-01-04 13:25:46pm
Milo AKA RAP Ferreria as 5w4 on 2021-01-03 21:45:00pm
Heliocentric as cp6w5 on 2021-01-03 21:20:30pm
Sir Integra Fairbrook Wingates Hellsing as 8w9 on 2021-01-03 15:36:24pm
Alucard as 7w8 on 2021-01-03 15:31:07pm
Toad as 6w7 on 2021-01-02 20:46:10pm
Antisthenes as 1w9 on 2020-12-29 14:54:15pm
Frank Zappa as 7w8 on 2020-12-29 14:30:59pm
The Muse, Queen of Spirals as 7w6 on 2020-12-28 16:52:31pm
Temperance as 9w1 on 2020-12-28 16:43:03pm
Atun-Shei Films as 6w5 on 2020-12-28 13:48:14pm
Sally as 9w1 on 2020-12-26 17:13:24pm
Ronan the Accuser as 8w7 on 2020-12-26 17:02:29pm
Jack Skellington as 4w3 on 2020-12-26 16:31:29pm
Infallibility as 1w9 on 2020-12-25 17:12:56pm
Progressive Revelation as 6w5 on 2021-01-13 16:00:58pm
Inerranttism as 6w5 on 2020-12-25 16:47:31pm
Anti-foundationalism as cp7w6 on 2020-12-25 16:33:19pm
Sideways as 5w6 on 2020-12-25 16:27:35pm
Alan Turing as 5w6 on 2020-12-24 14:21:15pm
Foundationalism as 5w6 on 2020-12-23 14:53:38pm
Gwen Stacy as 3w4 on 2020-12-22 00:16:03am
Stoner Metal as 9w8 on 2020-12-21 00:50:41am
The Cambridge Platonists as 1w9 on 2020-12-19 13:54:34pm
White Blood Cell U-1146 as 6w5 on 2020-12-18 21:57:01pm
Red Blood Cell AE3803 as 2w3 on 2020-12-21 15:40:13pm
Tiffany as 9w8 on 2020-12-17 15:33:25pm
Silica as 9w1 on 2020-12-17 15:05:40pm
Lizbeth as 9w8 on 2020-12-17 15:02:34pm
Watson Amelia as 7w6 on 2020-12-15 14:08:18pm
Ninomae Ina'nis as 9w1 on 2020-12-15 12:52:16pm
Takanashi Kiara as 7w6 on 2020-12-15 12:48:16pm
Edmund Pevensie as 6w5 on 2020-12-12 11:32:46am
Fred Jones as 3w2 on 2020-12-12 11:25:08am
Merlin as 5w6 on 2020-12-12 11:04:51am
Galahad as 1w9 on 2020-12-12 11:00:53am
Emily Dickinson as 5w4 on 2020-12-11 15:18:22pm
Percy Bysshe Shelley as 7w6 on 2020-12-11 15:14:20pm
Carl Gustav Jung as 5w6 on 2020-12-08 13:46:39pm
Isaac Newton as 5w6 on 2020-12-07 22:55:08pm
John Dee as 5wb on 2020-12-07 21:53:52pm
Quick-Witted as 7wb on 2020-12-07 17:36:25pm
Star Wars Episode II - Attack of the Clones as 6w7 on 2020-12-07 11:31:18am
Normative Ethics as 1w9 on 2020-12-07 09:53:46am
most likely to dislike the rejection types as 7w6 on 2020-12-05 20:26:22pm
Manic Pixie Dream Girl as 7w6 on 2020-12-05 20:19:40pm
Daniel Johnston as 4w5 on 2020-12-05 20:08:27pm
Warlock as 6w5 on 2020-12-02 21:05:56pm
Sorcerer as 4w3 on 2020-12-02 21:02:09pm
Ranger as 9w8 on 2020-12-02 20:57:44pm
Rogue as 9w8 on 2020-12-02 19:48:59pm
Paladin as 1w2 on 2020-12-02 19:46:31pm
Monk as 9wb on 2020-12-02 19:43:08pm
Druid as 9w1 on 2020-12-02 19:39:36pm
Cleric as 6wb on 2020-12-02 19:35:11pm
Bard as 7w6 on 2020-12-02 19:32:09pm
Barbarian as 8wb on 2020-12-02 19:05:47pm
Artificer as 5w6 on 2020-12-02 19:03:02pm
Wizard as 5wb on 2020-12-02 19:00:11pm
They Might be Giants as 7w6 on 2020-12-02 18:46:09pm
Hermeticism as 5w6 on 2020-12-24 17:49:47pm
Winnie the Pooh as 9w1 on 2020-12-02 14:50:52pm
Ellen Ripley as 9w8 on 2020-11-30 11:52:56am
Religion Major as 6w5 on 2020-11-29 13:49:25pm
Gaia Online as 7w6 on 2020-11-29 13:42:45pm
Vincent van Gogh as 4w5 on 2020-11-29 13:36:20pm
Mori Calliope as 3w4 on 2020-11-30 11:52:01am
Inugami Korone as 2w3 on 2020-11-28 17:11:42pm
Blade Runner 2049 as 6w5 on 2020-11-28 17:02:09pm
Fezzik as 9w8 on 2020-11-28 15:52:54pm
Inigo Montoya as 6w5 on 2020-11-28 15:51:22pm
Vizzini as 3w4 on 2020-11-28 15:50:15pm
Buttercup as 4w3 on 2020-11-28 15:48:58pm
Westley as 9w8 on 2020-11-28 15:46:31pm
Korra as 8w7 on 2020-11-28 15:42:46pm
Gender Studies Major as 6w5 on 2020-11-27 17:22:39pm
John Stuart Mill as 5w6 on 2020-11-27 17:10:16pm
Pearl as 1w2 on 2020-11-19 02:33:35am
SEI-Si as 9w1 on 2020-11-17 14:05:50pm
SLI-Te as 5w6 on 2020-11-16 17:52:22pm
SLI-Si as 9w8 on 2020-11-16 17:47:29pm
IEI-Ni as 9w1 on 2020-11-16 17:04:22pm
IEI-Fe as 4w3 on 2020-11-16 17:04:15pm
Wallace E. Baker as 5w4 on 2020-11-16 15:43:26pm
ESI-Se as 6w5 on 2020-11-15 15:28:32pm
ESI-Fi as 1wb on 2020-11-15 15:23:27pm
LIE-Ni as 3w2 on 2020-11-15 15:16:22pm
LSE-Si as 3w2 on 2020-11-15 01:36:31am
LSE-Te as 1wb on 2020-11-15 01:32:52am
ESE-Si as 2w3 on 2020-11-15 01:27:37am
ESE-Fe as 2w3 on 2020-11-15 01:20:32am
KIK Messenger as 7w6 on 2020-11-14 19:16:17pm
IEE-Ne as 7w6 on 2020-11-14 19:03:37pm
Christopher Lee as 3w4 on 2020-11-12 21:45:45pm
Tom Lehrer as 7w6 on 2020-11-08 16:26:28pm
James "Jim" Pleiades Hawkins as 7w8 on 2020-11-08 14:18:49pm
Cornel West as 8w9 on 2020-12-28 17:20:07pm
Emil Cioran as 4w5 on 2020-11-07 19:09:46pm
Jean-Jacques Rousseau as 1w9 on 2020-11-07 16:00:42pm
The Hierophant as 6w5 on 2020-11-05 17:37:24pm
Stephen Maturin as 1w9 on 2020-11-02 13:04:57pm
Ted Kaczynski as 5w6 on 2020-11-02 12:44:55pm
Paul Joseph Watson as 6w5 on 2020-11-02 12:43:32pm
Heaven's Gate as 6w7 on 2020-11-16 16:35:29pm
Mark "Count Dankula" Meechan as 7w8 on 2020-10-31 16:10:25pm
Maria von Herbert as 4w5 on 2020-10-30 15:27:53pm
Greece as 6w7 on 2020-10-30 13:50:51pm
Herod the Great as 8w9 on 2020-10-30 13:49:16pm
Barack Obama as 3w2 on 2020-10-30 13:46:40pm
Alfred Nobel as 1w9 on 2020-10-30 12:46:47pm
Benno as 8w9 on 2020-10-27 13:52:44pm
Lutz as 9w8 on 2020-10-27 13:46:04pm
Myne as 5w6 on 2020-10-27 13:38:30pm
Social Liberalism as 1w2 on 2020-10-26 17:40:21pm
Classical Liberalism as 7w6 on 2020-10-26 17:36:12pm
Huey Long as 8w9 on 2020-10-25 13:13:40pm
Donald Glover as 4w3 on 2020-10-23 12:42:32pm
David Bowie as 4w3 on 2020-10-22 16:17:00pm
Webtoon as 9w1 on 2020-10-22 16:02:44pm
Masochism as 4wb on 2020-10-19 16:13:12pm
Sadism as 8w7 on 2020-10-19 16:12:23pm
Submission as 9w1 on 2020-10-19 16:09:28pm
Domination as 8w9 on 2020-10-19 16:07:36pm
Nike as 3wb on 2020-10-17 23:40:59pm
Muhammad Ali as 3w2 on 2020-10-17 23:37:59pm
Sofiya "Balalaika" Pavlovena as 8w9 on 2020-10-17 16:44:31pm
Ganondorf as 8w9 on 2020-10-17 16:21:17pm
Zelda as 9w1 on 2020-10-17 16:20:27pm
Navi as 1wb on 2020-10-17 16:17:05pm
Dutch as 9w8 on 2020-10-16 17:26:28pm
Frederick Douglass as 1w9 on 2020-10-16 15:58:54pm
Hayao Miyazaki as 1w9 on 2020-10-15 19:08:44pm
Sagittarius as 7w8 on 2020-10-12 14:07:05pm
Leo as 3w4 on 2020-12-07 09:44:25am
Digibro (Otaku Gonzo Journalism) as 5wb on 2020-10-11 18:55:15pm
Flight of the Conchords as 9w1 on 2020-10-08 19:15:44pm
The Lonly Island as 7w8 on 2020-10-08 19:04:39pm
The Pedantic Romantic as 5w4 on 2020-10-08 16:52:00pm
Niccolò Machiavelli as 6w5 on 2020-10-06 14:59:52pm
Nursing Major as 2w1 on 2020-10-04 17:22:34pm
Ecology Major as 9w1 on 2020-10-04 17:07:22pm
Public Enemy as cp6w5 on 2020-10-04 16:24:38pm
Ego Integrity vs. Despair as 2w3 on 2020-10-03 15:17:39pm
Generativity vs. Stagnation as 3w2 on 2020-10-03 15:16:07pm
Intimacy vs. Isolation as 9w1 on 2020-10-03 15:14:18pm
Identity vs. Role Confusion as 4w3 on 2020-10-03 15:11:43pm
Autonomy vs. Shame and Doubt as 3w4 on 2020-10-03 15:07:31pm
Trust vs. Mistrust as 6w5 on 2020-10-03 15:05:23pm
Five Percent Nation as cp6w5 on 2021-01-03 20:50:29pm
Clear Sighted as 7wb on 2020-09-24 22:39:08pm
Aesthetician as 4w3 on 2020-09-24 20:59:01pm
Impressionist as 8wb on 2020-09-24 20:55:11pm
Fascinator as 4wb on 2020-09-24 20:46:47pm
Understanding as 9wb on 2020-09-24 20:16:53pm
Level-Headed as 9w8 on 2020-09-24 16:24:53pm
Contemplative as 5w6 on 2020-09-24 16:10:01pm
Overseer as 9w1 on 2020-09-24 15:40:04pm
Externalist as 7w6 on 2020-09-24 20:38:16pm
Newtype as 7w6 on 2020-09-23 16:04:35pm
Bookkeeper as 6w5 on 2020-09-24 15:54:25pm
Analyst as 5wb on 2020-09-23 15:53:08pm
Pure Instinct as 7w8 on 2020-09-22 17:25:25pm
Human Calculator as 5w6 on 2020-09-22 17:14:39pm
Progressivism as 6wb on 2020-10-17 16:30:48pm
Beethoven - Symphony No. 9 as 1wb on 2020-09-16 16:20:55pm
Burzum as 5w4 on 2020-09-15 10:31:01am
Theology Major as 1wb on 2020-12-24 20:15:51pm
Julius Evola as 6w5 on 2020-09-10 19:47:12pm
New Age as 9w1 on 2020-09-09 13:03:48pm
Dream Theater as 5w4 on 2020-09-04 14:41:08pm
Tree as 9w8 on 2020-08-24 19:26:55pm
Kings of the Road as 9w8 on 2020-08-22 09:24:58am
The Big 5 Personality Traits as 6w5 on 2020-08-20 12:10:16pm
Horseshoe Theory as 6w5 on 2020-08-20 10:54:42am
Fishhook Theory as cp6w5 on 2020-08-20 10:53:17am
most likely to dislike the super ego types as 7w8 on 2020-08-20 10:51:51am
Sir Thomas Browne as 5w4 on 2020-08-18 00:46:11am
Persephone as 7w6 on 2020-08-16 11:34:11am
The Fates as 5w4 on 2020-08-16 11:30:12am
Hermes as 3w4 on 2020-08-16 11:21:12am
EII-Ne as 1w9 on 2020-11-16 17:22:00pm
Captain Ahab as 8w9 on 2020-08-14 13:05:27pm
ICE as 6w5 on 2020-08-13 15:54:24pm
Alexander Hamilton as 3w2 on 2020-08-12 19:17:01pm
Communications Major as 6w5 on 2020-08-12 17:22:05pm
Mathematics Major as 5wb on 2020-08-12 16:07:05pm
St. John of the Cross as 4w5 on 2020-08-11 14:05:19pm
Tommy DeVito as 8w7 on 2020-08-11 12:05:23pm
Anarcho-Socialism as 6wb on 2020-10-17 16:40:33pm
Jules Winnfield as 8w9 on 2020-08-10 11:24:52am
SEE as 3wb on 2020-08-10 11:23:22am
Disco as 7w6 on 2020-08-10 11:08:40am
Pop Music as 3wb on 2020-08-08 21:44:32pm
Jazz as 7w8 on 2020-08-03 01:16:15am
Blaire White as 3w2 on 2020-08-02 15:12:28pm
Jacob Geller as 5w4 on 2020-08-02 15:11:32pm
Marxism-Leninism as 8w9 on 2020-08-01 16:30:31pm
Adam as 9w8 on 2020-07-30 20:26:21pm
Cain as cp6wb on 2020-07-30 20:19:22pm
Vertigo as 5w4 on 2020-07-30 20:06:15pm
Lord Lullivan as 2w3 on 2020-07-29 13:52:20pm
Pancho Villa / Francisco Villa as 8w9 on 2020-07-29 12:47:47pm
Ameri Azazel as 3w4 on 2020-07-29 00:30:38am
Market Socialism as 6w5 on 2020-07-29 00:00:07am
Alice "Azz" Asmodeus as 3w4 on 2020-07-28 21:18:45pm
Clara Valac as 7w6 on 2020-07-28 20:03:56pm
Iruma Suzuki as 9w1 on 2020-07-28 19:52:34pm
Business Major as 3w2 on 2020-07-28 15:28:33pm
History Major as 6w5 on 2020-07-27 18:02:37pm
Psychology Major as 9w1 on 2020-07-27 17:51:01pm
Thomas Magnum as 7w8 on 2020-07-25 20:37:15pm
Jonathan Quayle Higgins III as 6w5 on 2020-07-25 15:03:36pm
Supertramp as 4w5 on 2021-01-04 13:35:17pm
Flower-like as 4w3 on 2020-07-21 17:33:34pm
Mormonism as 6w7 on 2020-07-20 16:10:56pm
MBTI Alpha as 9w1 on 2020-07-20 00:42:09am
MBTI Gamma as 6w5 on 2020-07-19 22:33:13pm
Idealization as 7w6 on 2020-07-19 17:09:36pm
Meditation as 9w1 on 2020-07-19 17:02:43pm
George MacDonald as 9w1 on 2020-07-19 16:24:11pm
Carrie Fisher as 8w7 on 2020-07-19 16:22:57pm
Harvey Milk as 8w9 on 2020-07-19 11:57:53am
Radical Feminism as 6w5 on 2020-11-14 18:32:23pm
Bo Burnham as 3w4 on 2021-01-04 15:17:38pm
Arnold Ernst Toht as 6w5 on 2020-07-16 11:46:53am
Dave Rubin as 6wb on 2020-07-15 17:16:28pm
Avoidant personality disorder as 4w5 on 2020-07-12 15:43:50pm
Glenn Danzig as cp6w5 on 2020-07-12 14:44:14pm
T. S. Eliot as 1w9 on 2020-11-16 16:11:07pm
Allen Ginsberg as 4w5 on 2020-10-11 14:13:22pm
Endeavor as 8w9 on 2020-07-11 14:34:57pm
Top Gear as 7wb on 2020-07-08 17:37:38pm
Gordon Ramsay as 3w4 on 2020-07-08 17:31:06pm
Chumbawamba as 1w2 on 2020-07-07 21:03:31pm
Alex as 9w1 on 2020-07-06 15:58:06pm
The Avengers as 3w2 on 2020-07-05 22:39:46pm
Avengers: Age of Ultron as 6wb on 2020-07-05 22:41:38pm
Illuminati as 5wb on 2020-07-05 22:31:24pm
Joy Division as 4w5 on 2020-07-05 11:14:01am
Lust as 3w4 on 2020-07-05 00:39:06am
most likely to dislike the heart types as 8w9 on 2020-07-04 21:49:16pm
Moral Intuitionism as 1w9 on 2020-11-08 19:13:12pm
Dollar Shave Club One Wipe Scottys as 7w8 on 2020-07-03 07:42:48am
Sitcom as 6w7 on 2020-07-01 23:43:45pm
Reginald Jeeves as 3w2 on 2020-07-01 23:56:04pm
Bertam "Bertie" Wooster as 9w1 on 2020-07-01 13:12:15pm
COVID-19 as 6w5 on 2020-06-25 09:48:49am
Action Movie Hero Boy as 7w8 on 2020-06-25 09:32:56am
Behaviorism as 5w6 on 2020-06-23 14:28:18pm
David Lynch as 5w4 on 2020-06-23 11:30:35am
Paracelsus as 5w4 on 2020-06-21 13:56:49pm
Psychoanalysis as 5w4 on 2020-06-21 13:00:47pm
Abraham as 6w5 on 2020-06-19 15:25:04pm
Korosensei as 7w6 on 2020-06-19 15:08:08pm
Moses as 8w9 on 2020-06-19 14:07:54pm
Saruman as 5w6 on 2020-06-18 17:29:37pm
Give 'Em The Pickle as 3w2 on 2020-06-18 15:46:46pm
Unitarian Universalism as 9w1 on 2020-06-18 13:08:47pm
Alasdair MacIntyre as 6w5 on 2020-06-17 18:46:26pm
George Bernard Shaw as 1w2 on 2020-11-19 02:14:36am
Dean Craig Pelton as 6w7 on 2020-06-15 22:27:38pm
Eurydice as 7w8 on 2020-08-16 11:21:43am
Architecture as 5w6 on 2020-06-11 17:47:56pm
Most likely to have high empathy, but low sympathy as 6w7 on 2020-06-16 21:12:54pm
Hamlet as 4w5 on 2020-06-10 13:26:55pm
Eye of the Tiger-Survivor as 7w8 on 2020-06-10 13:15:25pm
jreg as 9w1 on 2020-06-09 10:53:14am
YouTube as 3w4 on 2020-06-09 01:21:54am
Libertarian-Center as 9w8 on 2020-06-09 00:24:38am
Grand Theft Auto V as 7w8 on 2020-06-08 16:11:26pm
Nanny State as 2w1 on 2020-06-07 13:26:29pm
Minecraft as 9wb on 2020-06-07 13:22:51pm
AuthRight as 6w5 on 2020-06-05 22:13:32pm
AuthLeft as 8w7 on 2020-06-08 13:08:51pm
Ancap as 7w8 on 2020-06-05 21:46:27pm
LibLeft as cp7w6 on 2020-11-23 13:38:48pm
Allister Macintyre as 1w9 on 2020-06-05 15:28:46pm
Citizen Kane as 3w4 on 2020-06-04 13:13:33pm
Charles Foster Kane as 3w4 on 2020-06-04 13:08:58pm
Mello as cp7w6 on 2020-06-01 18:59:04pm
Sad Larry as 4w5 on 2020-05-31 01:17:29am
Alice Cooper as 7w6 on 2020-05-31 01:09:01am
Gomez Addams as 6w7 on 2020-05-31 01:06:15am
Wednesday Addams as 5w4 on 2020-05-30 23:23:24pm
Grigorij Rasputin as 8w7 on 2020-05-30 14:05:03pm
P.E.T.A as 1w2 on 2020-05-30 03:30:28am
most likely to dislike the reactive types as 9wb on 2020-11-28 15:39:10pm
Hunter x Hunter (2011) as 7w6 on 2020-05-29 20:43:57pm
EIE-Fe as 4w3 on 2020-05-29 11:40:30am
EIE-Ni as 4wb on 2020-05-29 11:39:59am
Farengar Secret-Fire as 5wb on 2020-05-28 16:16:56pm
Elwin Ransom as 9w1 on 2020-05-28 14:36:00pm
Death Grips as 5w4 on 2020-05-28 11:47:31am
Mark Studdock as 6w5 on 2020-05-28 09:45:17am
Jane Studdock as 5w6 on 2020-05-28 09:34:50am
TikTok as 3wb on 2020-05-27 01:07:56am
LIE-Te as 3w4 on 2020-05-25 14:10:40pm
LIE-Ni as 3wb on 2020-05-25 14:11:15pm
IEE-Fi as 7w6 on 2020-05-22 18:22:27pm
LSI-Se as cp6w5 on 2020-05-22 17:29:04pm
LSI-Ti as 1w9 on 2020-05-22 17:28:41pm
ILI-Ni as 5w4 on 2020-05-22 17:23:55pm
ILI-Te as 5wb on 2020-05-22 17:23:44pm
EII-Fi as 6w5 on 2020-05-22 17:21:13pm
LII-Ne as 5wb on 2020-11-16 17:40:49pm
LII-Ti as 5w6 on 2020-05-22 17:10:35pm
Most Scholarly Type as 5w6 on 2020-05-19 18:24:00pm
Most Adaptable Type as 7w6 on 2020-05-19 16:19:41pm
Most Adventurous Type as 7w8 on 2020-05-19 15:14:54pm
Most Prudent Type as 6w5 on 2020-05-19 15:13:44pm
Most Reclusive Type as 5w4 on 2020-05-19 15:12:46pm
Al Capone as 8w7 on 2020-05-19 12:14:16pm
Willie Scott as 2w3 on 2020-05-18 18:57:29pm
Mola Ram as 8wb on 2020-05-18 18:57:04pm
Short Round as 6w7 on 2020-05-18 18:56:42pm
Most Arrogant Type as 3w4 on 2020-05-18 18:55:23pm
L3-37 as 1w2 on 2020-05-17 18:38:26pm
Lowest HEXACO combo as cp6w5 on 2020-05-28 17:07:30pm
Miyamoto Musashi as 8w9 on 2020-05-16 17:44:18pm
Meriadoc "Merry" Brandybuck as 7w6 on 2020-05-16 16:51:32pm
Timothy Francis Leary as 7w6 on 2020-05-16 11:58:03am
Troy Barnes as 6w7 on 2020-05-31 14:20:12pm
Fuzzy as 9w8 on 2020-05-09 20:00:24pm
Rogue One: A Star Wars Story as 6w5 on 2020-05-09 17:22:55pm
Philosophy of Mind as 5w6 on 2020-05-09 16:05:47pm
Maurice Merleau-Ponty as 5w4 on 2020-05-08 11:14:28am
TNIJ as 5w6 on 2020-05-06 10:45:57am
Karl Marx as 8w9 on 2020-07-19 13:06:58pm
Guardians of the Galaxy Vol. 2 as 6w7 on 2020-04-30 15:26:49pm
Umberto Eco as 7w6 on 2020-04-30 15:04:00pm
Transhumanism as 3w4 on 2020-05-01 16:55:13pm
John Brown as 1w2 on 2020-04-29 23:07:08pm
Most Contradicting Tritype as cp6wb on 2020-04-29 18:23:49pm
"4-7-9" The Surrealist as 7w6 on 2020-04-29 16:21:09pm
3-7-8 "The Chad" as 7w8 on 2020-04-29 16:12:43pm
Arthur as 6w7 on 2020-04-29 01:23:19am
Tick as 3w2 on 2020-04-28 22:22:02pm
Zorak as 3w4 on 2020-04-28 20:19:50pm
Moltar as 9w8 on 2020-04-28 15:20:30pm
Space Ghost as 3w2 on 2020-04-28 15:03:55pm
Beyonce - If I Were A Boy as 9w1 on 2020-04-28 14:35:45pm
King Lear as 3w4 on 2020-04-28 13:48:03pm
Albert Einstein as 5w4 on 2020-04-28 13:14:14pm
1-4-7 "The Repressed" as 4w3 on 2020-04-27 21:53:29pm
Messiah complex as 1w2 on 2020-04-27 16:04:29pm
Star Wars Episode III- Revenge of the Sith as 6w5 on 2020-12-07 11:29:04am
Star Wars Episode I - The Phantom Menace as 6w7 on 2020-04-27 13:41:14pm
1-4-5 "The Still Waters" as 1w9 on 2020-04-27 01:15:58am
1-3-5 "The Formalist" as 3w4 on 2020-04-26 18:06:56pm
1-2-5 "The Student" as 5w6 on 2020-04-26 18:00:42pm
Peter Parker/Spider-Man as 9w1 on 2020-04-26 16:07:10pm
Rapunzel as 7w6 on 2020-04-26 00:24:22am
Calvin's Dad as 9w1 on 2020-04-25 18:38:17pm
sx/so as 7w8 on 2020-04-25 15:55:08pm
Dark humor as 7w8 on 2020-04-25 15:50:45pm
Ron Burgundy as 7w6 on 2020-04-22 15:55:07pm
Susie Derkins as 2w1 on 2020-04-22 15:51:02pm
Hedonism as 7w8 on 2020-04-22 15:07:14pm
Benjamin Franklin Chang as cp6w5 on 2020-05-31 14:18:07pm
Shirley Bennett as 2w3 on 2020-04-22 15:02:25pm
Britta Perry as 1w2 on 2020-04-22 14:58:36pm
Jeff Winger as 3w2 on 2020-04-22 14:57:23pm
Pierce Hawthorne as 3w4 on 2020-04-22 14:55:59pm
Annie Edison as 2w1 on 2020-05-31 14:25:40pm
Abed Nadir as 5w6 on 2020-05-31 14:30:42pm
New Kids On The Block - Hangin Tough as 6w7 on 2020-04-22 13:38:38pm
Calvin as 7w8 on 2020-12-23 16:14:29pm
Hobbes as 9w8 on 2020-04-22 13:27:03pm
Moses as 7w6 on 2020-04-20 21:03:13pm
Rameses as 3w4 on 2020-04-20 21:00:58pm
Sophism as 7w8 on 2020-04-20 13:53:31pm
Never Gonna Give You Up as 6w7 on 2020-04-19 20:27:27pm
Bender Bending Rodríguez as 8w9 on 2020-04-19 16:23:00pm
Jafar as 3w4 on 2020-04-19 14:49:35pm
Lord Byron as 4w5 on 2020-04-18 22:41:27pm
Leah Libresco Sargeant as 1w2 on 2020-07-02 16:49:29pm
Imperial as 6w5 on 2020-04-18 18:10:00pm
Khajiit as 9w8 on 2020-04-18 18:07:39pm
Nord as 6w7 on 2020-04-18 18:05:47pm
Orc as 8w9 on 2020-04-18 18:02:26pm
Kirby (Nintendo character) as 9w1 on 2020-04-18 12:46:28pm
9wb as 9wb on 2020-04-17 22:55:38pm
8wb as 8wb on 2020-04-17 22:52:55pm
7wb as 7wb on 2020-04-17 22:49:26pm
6wb as 6wb on 2020-04-17 22:46:32pm
5wb as 5wb on 2020-04-17 22:42:37pm
4wb as 4wb on 2020-04-17 22:38:35pm
3wb as 3wb on 2020-04-17 22:34:36pm
2wb as 2wb on 2020-04-17 19:21:35pm
1wb as 1wb on 2020-04-17 19:16:26pm
Pink Guy as 7w8 on 2020-04-17 19:10:28pm
Sargon of Akkad (Carl Benjamin) as 6w5 on 2020-07-28 19:39:50pm
Horatio as 6w5 on 2020-04-17 16:19:20pm
Captain Hector Barbossa as 7w8 on 2020-04-17 15:05:10pm
Will Turner as 6w5 on 2020-04-17 15:04:31pm
most likely to dislike the head types as cp6w7 on 2020-07-27 17:04:29pm
Death as 5w4 on 2020-04-16 21:19:56pm
The Seventh Seal as 4w5 on 2020-04-16 21:13:58pm
Doctor Horrible’s Sing-along Blog as 4w5 on 2020-04-16 19:51:54pm
Elijah/Elias as 1w9 on 2020-04-16 14:51:18pm
St. James the Apostle as 1w9 on 2020-04-16 14:35:46pm
Flynn Rider (Eugene Fitzherbert) as 7w8 on 2020-04-15 16:13:12pm
Brad Jones as 7w8 on 2020-04-15 15:49:43pm
Esau as 8w7 on 2020-07-30 20:17:53pm
NPC as 9w1 on 2020-04-15 15:37:24pm
Doomer as 9w8 on 2020-04-15 15:34:31pm
George Berkeley as 1w9 on 2020-04-14 11:39:18am
Tou Story 3 as 6w7 on 2020-04-14 11:22:04am
Emilia as 2w1 on 2020-04-13 14:52:28pm
Beatrice as 3w4 on 2020-04-13 14:42:14pm
Beth Sanchez as 3w4 on 2020-04-12 14:47:03pm
Daydreaming as 9w1 on 2020-04-10 17:03:11pm
Julian the Apostate as 1w9 on 2020-04-11 11:06:35am
Zayeh as 6w7 on 2020-04-09 15:44:14pm
It's Such a Beautiful Day [2011] as 4w5 on 2020-04-09 13:27:20pm
The Grinch as 8w9 on 2020-04-09 13:17:16pm
Skyrim as 9w8 on 2020-04-07 12:23:30pm
Benedictine Order as 9w1 on 2020-04-06 11:48:40am
Jesuit Order as 6w5 on 2020-04-05 20:36:44pm
Dominican Order as 6w5 on 2020-04-05 13:52:19pm
Faith-Based Reasoning as 6wb on 2020-04-05 06:09:28am
Conspiracy Theory as cp6w5 on 2020-04-04 14:01:31pm
Iconoclasm as 5w4 on 2020-04-04 14:00:29pm
GroupThink as 6w7 on 2020-04-04 13:54:14pm
Pelagianism as 1w9 on 2020-04-04 10:40:27am
Mario as 7w6 on 2020-04-04 10:23:15am
Rodmilla - Wicked Stepmother as 3w4 on 2020-04-04 10:17:36am
Plotinus as 1w9 on 2020-04-03 23:41:47pm
Maggie Mae Fish as 7w6 on 2020-04-03 21:19:58pm
O.J. Simpson as 3w2 on 2020-04-03 12:59:10pm
Princess Mononoke as 9w8 on 2020-04-03 12:58:32pm
W. E. B. Du Bois as 1w9 on 2020-04-01 18:29:25pm
Interstellar as 5w6 on 2020-03-31 23:52:29pm
John Lennon as 4w5 on 2020-03-30 01:37:24am
Mare Bella Fiora as 9w1 on 2020-03-27 13:06:46pm
Yasutora Sado "Chad" as 9w8 on 2020-03-26 18:51:57pm
Realism as 5w6 on 2020-03-26 12:06:51pm
Gizmo as 9w1 on 2020-03-26 11:42:38am
Cary as 7w6 on 2020-03-25 22:27:01pm
Charles Kaznyk as 3w4 on 2020-03-25 22:24:40pm
Joe Lamb as 9w1 on 2020-03-25 22:18:17pm
Sarah Z as 2w1 on 2020-03-25 18:19:44pm
Morgana Pendragon as 3w4 on 2020-03-25 18:16:07pm
Merlin as 9w1 on 2020-03-25 18:14:19pm
Arthur Pendragon as 3w2 on 2020-03-25 18:09:19pm
Thomas Nagel as 5w6 on 2020-03-25 12:32:54pm
the 2 with the highest chance of being unwanted as 2w1 on 2020-03-25 12:24:29pm
The Beast as 8w9 on 2020-03-25 12:23:03pm
Mike Love as 7w6 on 2020-06-03 12:17:49pm
Anarcho-Primitivism as 9w8 on 2020-05-01 16:59:07pm
Brian Wilson as 9w1 on 2020-03-22 18:03:51pm
Apophatic Theology as 1w9 on 2020-03-22 12:47:27pm
Ghost Bath as 4w5 on 2020-03-21 15:44:58pm
Thomas Ligotti as 5w4 on 2020-03-21 14:23:04pm
archive.org as 6w5 on 2020-03-21 14:14:15pm
Leon Trotsky as 1w2 on 2020-03-20 23:16:49pm
The Cure as 4wb on 2020-07-24 11:06:13am
Ram as 6w5 on 2020-03-17 11:56:41am
Galileo Galilei as 5w6 on 2020-03-17 11:53:48am
Petelgeuse Romanee-Conti as 7w8 on 2020-04-13 14:50:12pm
Pack as 7w6 on 2020-03-17 02:43:02am
Rem as 2w1 on 2020-03-17 02:41:12am
Natsuki Subaru as 6w7 on 2020-03-17 02:36:46am
The HU as 6w5 on 2020-03-16 13:07:14pm
Pastor Nick (Abridged) as cp6w7 on 2020-03-15 14:48:20pm
Antifa as cp6w5 on 2020-03-15 13:05:43pm
Tea Party as cp6w7 on 2020-03-15 13:04:32pm
Middle Ages as 6w7 on 2020-03-15 13:08:02pm
High Fantasy as 1w9 on 2020-03-14 16:50:38pm
Reiner Braun (Abridged) as 3w2 on 2021-01-11 11:28:35am
Mikasa Ackerman (Abridged) as 6w5 on 2021-01-11 11:34:30am
Captain Levi (Abridged) as 3w4 on 2020-03-14 14:46:21pm
Jean Kirstein (Abridged) as 3w4 on 2020-03-14 14:44:06pm
Armin Arlert (Abridged) as 4w5 on 2021-01-11 11:29:26am
Political Philosophy as 6w5 on 2020-07-28 15:37:16pm
Gender dysphoria as 4w3 on 2020-03-13 23:45:50pm
Persudging as 7w6 on 2020-03-12 22:13:07pm
Sensintuition as 9w1 on 2020-03-12 22:06:55pm
Thinling as 6w7 on 2020-03-12 22:05:26pm
Grumpy Cat as 9w8 on 2020-03-11 14:13:21pm
Project Gutenberg as 6w5 on 2020-03-11 14:12:35pm
Leo Tolstoy as 1w2 on 2020-03-11 14:20:49pm
ISTP Crafter as 9w8 on 2020-03-10 19:34:29pm
INTP Architect as 5w6 on 2020-03-10 19:33:00pm
INFJ Counselor as 1w9 on 2020-03-10 18:51:46pm
INFP Healer as 9w1 on 2020-03-10 18:49:12pm
ENTJ Fieldmarshal as 3w4 on 2020-03-10 18:47:28pm
INTJ Mastermind as 5w6 on 2020-03-10 18:46:19pm
ENTP Inventor as 7w6 on 2020-03-10 18:43:18pm
ISTJ Supervisor as 1w2 on 2020-03-10 18:39:58pm
Blaise Pascal as 1w9 on 2020-03-10 16:27:16pm
Jack Sparrow as 7w8 on 2020-04-14 11:32:02am
Faye Whitaker as 8w9 on 2020-03-07 16:46:04pm
Donkey as 9w8 on 2020-03-07 16:33:10pm
Horse as 9w8 on 2020-03-07 16:31:05pm
Father John Misty (Josh Tillman) as 4w5 on 2020-03-07 15:53:36pm
Marten Reed as 9w1 on 2020-03-06 15:03:20pm
William Shatner as 3w4 on 2020-03-06 14:53:56pm
Laveyan Satanism as 8w9 on 2020-03-02 12:43:49pm
Shadow The Hedgehog as 8w9 on 2020-03-02 12:38:42pm
2000s as cp6w7 on 2020-03-02 11:12:38am
2010s as 6wb on 2020-12-21 15:10:02pm
High Elf as 1w9 on 2020-03-01 20:59:26pm
Max Scheler as 5w4 on 2020-03-01 20:55:05pm
Lydia as 6w5 on 2020-03-01 17:44:08pm
fg as cp6w5 on 2020-12-21 15:00:35pm
Rainer Maria Rilke as 4w5 on 2020-02-29 19:31:27pm
Immanuel Kant as 5w4 on 2020-10-17 16:24:33pm
1920s as 3wb on 2020-03-01 17:30:07pm
1950s as 6wb on 2020-12-21 15:29:09pm
1960s as 7w6 on 2020-02-25 17:47:14pm
1970s as 7w8 on 2020-02-25 17:44:45pm
1980s as 6w7 on 2020-02-25 17:40:28pm
1990s as 9w8 on 2020-02-25 17:38:51pm
Gnosticism as 4w5 on 2020-04-04 14:14:55pm
Critical Rationalism as 5w6 on 2020-02-21 22:29:37pm
Prometheus as 2w1 on 2020-02-21 17:30:32pm
Orpheus as 4w3 on 2020-02-21 17:17:58pm
Post-Traumatic Stress Disorder as 6w5 on 2020-02-18 23:28:16pm
Moral absolutism as 1w2 on 2020-02-17 19:23:16pm
The Bible as 6w5 on 2020-02-16 17:08:51pm
Modest Mouse as 6w5 on 2020-03-17 14:09:14pm
Harris Bomberguy / Hbomberguy / Harry Brewis as 7w6 on 2020-02-16 16:47:26pm
The Book of Job as 6w5 on 2020-02-16 12:00:31pm
The Gospel of John as 1w2 on 2020-02-15 23:28:00pm
St John the Baptist as 6w5 on 2020-02-21 17:38:02pm
Daniel Dennett as 5w6 on 2020-02-15 20:36:21pm
Rush as 7w6 on 2020-02-10 18:24:20pm
Abraham Lincoln as 9w1 on 2020-02-08 22:43:13pm
James Bond as 3w4 on 2020-02-06 23:27:23pm
Bipolar Disorder as 4w3 on 2020-02-06 23:04:09pm
Major Depressive Disorder as 4w5 on 2020-02-06 22:58:54pm
European Union as 6w5 on 2020-02-06 16:48:20pm
The White Witch/Jadis as 3w4 on 2020-02-02 20:08:08pm
Death Note as 5wb on 2020-01-31 18:26:56pm
Attack on Titan as cp6wb on 2020-01-31 16:47:41pm
Eren Yeager as 6w7 on 2020-01-31 16:43:51pm
Lucy Pevensie as 9w1 on 2020-01-30 22:21:59pm
Susan Pevensie as 6w5 on 2020-01-30 22:16:41pm
Peter Pevensie as 3w2 on 2020-12-12 11:26:33am
Asuna Yuuki as 3w4 on 2020-01-30 18:54:26pm
Kazuto "Kirito" Kirigaya as 5w6 on 2020-01-30 18:39:48pm
Dualism as 5w6 on 2020-02-21 17:51:35pm
Idealism as 1w9 on 2020-12-23 17:01:09pm
Materialism as 5w6 on 2020-12-23 17:13:36pm
Scientism as 6w5 on 2020-05-02 15:15:49pm
CopperCab as 6w7 on 2020-01-29 00:35:16am
Vanellope von Schweetz as 7w8 on 2020-01-28 16:21:41pm
Wreck-It Ralph as 8w9 on 2020-01-28 14:27:01pm
Alvin Plantinga as 5w6 on 2020-01-27 20:11:37pm
Apollo Archetype as 3w4 on 2020-01-27 23:16:05pm
Cassandra Archetype as 4w5 on 2020-01-27 12:35:29pm
St. Peter as 6w7 on 2020-01-26 16:17:29pm
Hero's Journey as 9w1 on 2020-01-26 16:07:04pm
The Protagonist as 9wb on 2020-01-26 16:01:06pm
Mr. Krabs as 3w4 on 2020-01-26 15:23:52pm
Sinéad O'Connor as 4w5 on 2020-01-24 19:14:55pm
J. Robert Oppenheimer as 5w4 on 2020-01-24 14:38:55pm
Anthrax as 7w8 on 2020-01-23 14:21:17pm
Megadeath as cp6w7 on 2020-01-31 12:57:38pm
Fuzzy as 3w4 on 2020-04-22 15:42:09pm
Sam as 2w1 on 2020-01-22 16:47:44pm
Meyer Wolfsheim as 8w7 on 2020-01-21 18:46:50pm
Jordan Baker as 7w8 on 2020-01-21 17:32:23pm
Tom Buchanan as 8w9 on 2020-01-21 17:06:23pm
Daisy Buchanan as 4w3 on 2020-01-21 16:50:32pm
Muʿtazilah as 1w9 on 2020-12-19 09:52:00am
Thomas Jefferson as 1w9 on 2020-01-17 19:54:23pm
John Wesley as 1w2 on 2020-01-16 21:27:36pm
Bishop Robert Barron as 6w5 on 2020-12-02 21:08:53pm
Shad Brooks (Shadversity) as 5w6 on 2020-01-15 01:55:35am
Thyssen as 9wb on 2020-01-14 16:17:56pm
Sam O'Nella as 5w6 on 2020-01-14 16:13:30pm
Hiccup Horrendous Haddock III as 6w5 on 2020-01-13 11:27:45am
Franciscus [Francis] (Jorge Mario Bergoglio) as 2w1 on 2020-01-12 16:52:58pm
The Renaissance as 3w4 on 2020-04-01 14:22:02pm
Ulfric Stormcloak as 8w9 on 2020-01-11 16:19:25pm
my 8values results as 9w8 on 2020-01-11 16:15:30pm
Link as 9wb on 2020-01-11 12:45:03pm
Ray as 5w6 on 2020-07-04 22:54:11pm
The Jimi Hendrix Experience as 9w8 on 2020-01-08 16:32:00pm
Lady Evil - Black Sabbath as 4w3 on 2020-01-08 16:20:36pm
Saraswati as 5w4 on 2020-01-06 13:51:54pm
Kali as 8w7 on 2020-01-05 23:58:12pm
Todd in the Shadows as 9w8 on 2020-04-27 15:59:55pm
Taylor Swift as 3w2 on 2020-07-19 16:22:26pm
Poe Dameron as 7wb on 2020-01-05 14:32:25pm
Squidward Tentacles as 1w9 on 2020-01-04 23:25:43pm
Ant-Man as 6w5 on 2020-01-04 15:03:44pm
Queens of the Stone Age as 9w8 on 2020-03-28 23:32:13pm
Overkill as 8w7 on 2020-01-04 12:21:29pm
South Park as cp7w6 on 2020-01-04 12:14:22pm
Mega Guillotine 2020- AJJ as cp7w6 on 2020-01-04 01:01:40am
Li "Hei" Shengshun as 9w8 on 2020-01-04 00:55:00am
5-7-9 "The Absent-Minded Professor" as 7w6 on 2020-01-03 13:15:28pm
A Day in the Life as 4w5 on 2020-01-02 22:59:09pm
A Boy Named Sue-Johnny Cash as 8w9 on 2020-01-02 22:50:40pm
Ring of Fire as 9wb on 2020-01-02 22:44:54pm
Hairy Soul Man as 7w8 on 2020-01-01 19:27:51pm
Volbeat as 7w8 on 2020-01-01 19:23:59pm
Nebula as 6w5 on 2020-01-01 14:39:33pm
James Rhodes "War Machine" as 6w5 on 2020-01-01 14:38:20pm
Hank Pym as 5w6 on 2020-01-01 14:37:40pm
Hela as 3w4 on 2020-01-01 14:34:30pm
Depersonalization disorder as 5w4 on 2020-01-01 11:37:55am
Sadistic Personality Disorder as 8w9 on 2020-01-01 11:32:02am
Blade Runner as 5w6 on 2020-11-28 17:04:08pm
Blue Öyster Cult as 7w6 on 2019-12-30 11:52:41am
Steven Moffat as 6w7 on 2019-12-29 20:41:43pm
Amy Pond as 7w6 on 2019-12-29 17:27:17pm
Twelfth Doctor as 6w5 on 2019-12-29 17:25:26pm
Ten as 6w7 on 2019-12-29 17:24:50pm
D. W. Griffith as 6w5 on 2019-12-28 21:58:21pm
Tabby as cp6w5 on 2019-12-28 20:05:54pm
Ralph "Piggy" as 6w5 on 2019-12-28 20:02:37pm
Jack Merridew as 8w7 on 2019-12-28 20:01:34pm
Bluegrass as 9w8 on 2020-04-24 14:44:35pm
Garfield as 9w8 on 2019-12-27 12:54:17pm
Calypso as 4w3 on 2019-12-26 20:57:25pm
Marvin as 4w5 on 2019-12-26 18:57:47pm
Trillian McMillan as 7w8 on 2019-12-26 18:56:26pm
Zaphod Beeblebrox as 7w8 on 2019-12-26 18:52:00pm
Arthur Dent as 9w1 on 2019-12-26 18:46:45pm
Ron Weasley as 6w7 on 2019-12-26 02:25:23am
Homer as 6w5 on 2019-12-25 21:21:17pm
Zeno of Citium as 5w6 on 2019-12-25 20:18:32pm
The Fox as 5w6 on 2020-05-10 18:47:39pm
Orual as 6w5 on 2019-12-24 15:33:56pm
Till We Have Faces as 4w5 on 2019-12-24 15:28:33pm
Butler as 6w5 on 2019-12-24 14:51:16pm
Artemis Fowl as 3w4 on 2019-12-24 14:48:46pm
Daoism as 9w1 on 2019-12-24 14:42:46pm
O come, O come, Emmanuel as 9w1 on 2019-12-24 14:17:49pm
Christmas Music as 2w1 on 2019-12-24 14:06:00pm
Sir Walter Raleigh as 7w6 on 2019-12-20 22:26:36pm
Edward Scissorhands as 4w3 on 2019-12-20 22:21:40pm
Elizabeth I of England as 3w4 on 2019-12-20 17:13:37pm
Rem as 2w1 on 2019-12-20 17:12:10pm
Touta Matsuda as 6w7 on 2019-12-20 03:40:03am
The Grinch as 8w9 on 2019-12-19 14:19:45pm
6-8-9 "The Knight In Sour Armor" as 8w9 on 2020-02-24 18:37:47pm
4-8-9 "The Bottled Volatile Substance" as 8w9 on 2020-01-27 12:22:30pm
5-6-8 "The Debater" as cp6w5 on 2019-12-19 14:24:47pm
5-8-9 as 9w8 on 2020-01-03 13:17:34pm
Martin Luther King as 8w9 on 2019-12-18 17:24:32pm
Ravi Zacharias as 6w5 on 2019-12-18 17:11:57pm
R. C. Sproul as 1w9 on 2019-12-18 17:09:23pm
Girolamo Savonarola as 1w2 on 2019-12-18 16:42:25pm
2-3-8 "LOVE MEEEE!!!!!!!!!!" as 2w3 on 2019-12-17 18:26:55pm
Fictionalism as 5w6 on 2020-01-27 17:46:22pm
Austere Nominalism as 5w6 on 2020-01-27 17:48:08pm
Causal Nominalism as 5w6 on 2019-12-17 13:11:35pm
Trope Theory as 9w8 on 2019-12-17 13:10:04pm
My Chemical Romance as 4w3 on 2019-12-17 12:54:52pm
Isabella as 3wb on 2019-12-17 10:47:05am
Bitcoin as 5w6 on 2019-12-17 10:37:23am
1-6-7 "That One Youth Pastor Who is Trying Very Very Hard to be Cool" as 6w7 on 2019-12-16 21:18:12pm
1-7-9 "The Procrastinating Perfectionist" as 7w6 on 2019-12-16 19:10:29pm
1-3-9 "The Gentleman" as 1w9 on 2019-12-16 22:24:27pm
1-5-7 "The Enlightenment Man" as 7w6 on 2019-12-16 18:56:02pm
3-4-6 "The Poser" as 4w3 on 2019-12-16 17:47:38pm
3-4-9 "The Silent Stepford Depressed as 9w1 on 2019-12-16 17:35:36pm
2-5-6 "The Adorkable" as 6w5 on 2019-12-16 20:50:22pm
2-4-9 "The Empathetic" as 9w1 on 2019-12-16 16:59:42pm
1-2-4 "The SJW" as 1w2 on 2019-12-16 16:46:30pm
2-3-5 "The Silver Tongued Skeemer" as 3w2 on 2019-12-16 16:23:26pm
2-4-8 "The Raging Inferno of Emotions" as 8w7 on 2019-12-16 15:56:34pm
3-4-7 "The Actor" as 4w3 on 2019-12-16 15:47:12pm
2-4-5 "The Soliloquizer" as 4wb on 2019-12-16 15:37:27pm
2-3-6 "The Yes Man" as 6w7 on 2019-12-16 15:26:48pm
1-2-8 "The Fearless Guardian" as 8w9 on 2019-12-16 15:17:29pm
1-5-8 "The Mad Sage" as 5w4 on 2019-12-16 12:06:21pm
Ghost Of Christmas Present as 7wb on 2019-12-16 11:08:40am
Ebenezer Scrooge as cp5w6 on 2019-12-16 11:07:28am
Ghost Of Christmas Yet To Come as 5w4 on 2019-12-16 11:06:46am
Ghost Of Christmas Past as 9w1 on 2019-12-16 11:04:52am
Green Grass and High Tides - The Outlaws as 9w8 on 2019-12-15 13:52:55pm
The Blues as 8w9 on 2020-08-08 21:35:10pm
All of the Other Reindeer as 6w7 on 2019-12-15 13:30:00pm
Rudolf the Red-Nosed Reindeer as 4w3 on 2019-12-15 13:28:48pm
Process Theology as 7w6 on 2020-12-24 19:56:53pm
Gabe as 1w9 on 2020-01-28 20:28:38pm
God as 9w1 on 2019-12-14 15:39:24pm
Prince Hans of the Southern Isles as 3w2 on 2019-12-13 17:15:39pm
Hadestown as 4w3 on 2019-12-13 12:36:30pm
The Workers as 9w8 on 2020-08-16 11:30:39am
Orpheus as 4w3 on 2020-06-13 05:41:59am
Hades as 8w9 on 2019-12-13 12:25:06pm
Frank Zappa and the Mothers of Inventions as 7w8 on 2019-12-13 12:29:13pm
Thom Yorke as 4w5 on 2019-12-12 23:35:36pm
Sgt. Pepper's Lonely Hearts Club Band as 4wb on 2019-12-12 23:13:40pm
LuLu as 4w3 on 2019-12-12 15:29:46pm
Johnny Carson as 7w6 on 2019-12-12 14:57:32pm
Soul Making Theodicy as 4w5 on 2019-12-12 14:44:44pm
Rickert as 6w7 on 2019-12-11 22:57:57pm
Achilles as 8w7 on 2019-12-11 17:22:19pm
Telemachus as 9w8 on 2019-12-11 17:15:19pm
Epicurus as 9w8 on 2019-12-11 12:50:39pm
CIA as 6w5 on 2019-12-11 12:34:55pm
Mary as 2w1 on 2019-12-10 21:31:57pm
Bishop Fulton J. Sheen as 1w2 on 2019-12-10 15:11:59pm
Craigslist as 6w5 on 2019-12-08 22:00:54pm
Neoclassical Metal as 3w4 on 2019-12-08 20:44:32pm
Power Metal as 7w6 on 2019-12-08 20:41:43pm
Speed Metal as 3w4 on 2019-12-08 19:16:49pm
Thrash Metal as 8w7 on 2019-12-08 19:12:02pm
Nu Metal as cp6w7 on 2019-12-08 19:09:25pm
New Wave British Heavy Metal as 7wb on 2020-11-23 19:22:48pm
Death Metal as 8w7 on 2019-12-08 19:02:58pm
Black Metal as 5w4 on 2019-12-08 18:59:17pm
The Free Will Defence as 3w2 on 2019-12-12 14:51:04pm
Montgomery Montgomery as 7w6 on 2019-12-08 15:35:28pm
A Series of Unfortunate Events as 6wb on 2019-12-08 14:47:26pm
Justice Strauss as 2w1 on 2019-12-08 14:29:53pm
RationalWiki as 5w6 on 2020-02-05 13:52:07pm
The Buthole Surfers as 7w8 on 2019-12-06 17:25:48pm
Captain Levi as 8w9 on 2019-12-06 17:11:53pm
ELO(Electric Light Orchestra) as 7w6 on 2019-12-05 22:57:09pm
Nero as 3w4 on 2019-12-05 22:44:22pm
Pearl Jam as 4w5 on 2019-12-05 22:42:38pm
Billie Joe Armstrong as 6w7 on 2019-12-05 15:51:27pm
Classical Era as 1w9 on 2019-12-05 14:50:26pm
Aesthetics as 4w5 on 2019-12-04 11:27:07am
2-3-9 "The People Pleaser" as 9w1 on 2019-12-16 11:28:18am
7-8-9 "The Grumpy Old Hippie" as 9w8 on 2020-04-26 15:43:54pm
6-7-8 "The Fuck the Police" as cp6w7 on 2019-12-06 17:09:33pm
General Grievous as 8w7 on 2019-12-03 20:44:34pm
Gun Enthusiast as cp6wb on 2020-02-15 22:02:34pm
Goku as 7w8 on 2019-12-02 15:47:50pm
Shinto as 9w1 on 2019-12-02 15:29:37pm
Modernism as 5w6 on 2019-12-10 15:07:12pm
Harlock as 8w9 on 2019-12-01 20:15:46pm
Inien as 8w9 on 2019-12-01 20:09:38pm
Dropkick Murphys as cp7w6 on 2019-12-01 15:05:53pm
Sloppy Seconds as 7w8 on 2019-12-01 15:04:29pm
Glenn Gould as 5w4 on 2019-12-01 15:02:38pm
It's a Death Metal X-Mas as 8w7 on 2019-11-30 23:09:03pm
Don't Shoot Me Santa-The Killers as 4wb on 2020-07-09 11:43:28am
The Right-Wing Authoritarian Quadrant as 6w5 on 2019-11-30 17:52:41pm
Mr. Popo as 8w9 on 2020-01-01 00:10:23am
Bono as 2w1 on 2019-11-30 13:40:52pm
Ritchie Rich as 6w7 on 2019-11-30 13:03:18pm
Emo as 4w3 on 2019-11-30 10:19:15am
Psychobilly as 7w8 on 2019-11-30 10:10:16am
Warren Zevonw as 7w8 on 2019-11-29 12:00:12pm
Rosemary's Baby as 2w3 on 2019-11-29 10:04:09am
Economist as 5w6 on 2019-11-29 09:58:37am
St. Thomas the Apostle as 6w5 on 2019-11-29 09:47:54am
St. Thomas the Apostle as 9w8 on 2020-02-15 20:51:12pm
Martha as 2w1 on 2020-02-15 20:54:56pm
Jacob as 3w2 on 2019-11-29 09:27:33am
Héloïse as 9w1 on 2019-11-29 00:42:15am
Carroll Shelby as 7w8 on 2019-11-29 00:19:32am
Ken Miles as 8w7 on 2019-11-29 00:17:05am
Peter Abelard as 5w4 on 2020-04-29 13:01:26pm
Fighter as 9w1 on 2019-11-28 16:53:48pm
William of Ockham as 1w2 on 2019-11-28 14:35:28pm
EIE as 4w3 on 2019-11-28 11:27:02am
Molinism as 5w6 on 2019-12-14 16:00:30pm
Open Theism as 7w6 on 2020-08-14 22:25:30pm
ESTJs as 3w2 on 2019-11-27 21:57:39pm
Connection Building Theodicy as 2w1 on 2020-07-26 14:56:35pm
The Greater Good Argument as 1w9 on 2019-12-12 14:52:45pm
The Antihero as 8w9 on 2019-11-25 17:25:39pm
The Antagonist as 8wb on 2019-11-25 17:23:53pm
The Villain as 3w4 on 2019-11-25 17:21:25pm
The Hero as 3w2 on 2019-11-25 17:18:33pm
6-7-9 "The Puppy" as 6w7 on 2019-11-25 16:18:40pm
Leonard Cohen as 4w5 on 2019-11-25 16:13:22pm
The Right-Wing Libertarian Quadrant as 9w8 on 2020-02-14 14:31:41pm
The Left-Wing Libertarian Quadrant as 7w6 on 2020-02-15 20:49:31pm
The Left-Wing Authoritarian Quadrant as 1w2 on 2019-11-25 16:06:53pm
5-6-9 "The Geek" as 5w6 on 2019-11-24 21:25:40pm
2-3-7 "The Cheerleading Captain" as 2w3 on 2019-12-16 15:23:49pm
2-6-7 "The Life Coach" as 6w7 on 2020-04-07 12:19:40pm
2-5-7 "The Trickster Mentor" as 7w6 on 2019-12-08 21:57:15pm
2-4-6 "the crazy ex-girlfriend" as 2w3 on 2020-02-05 13:48:09pm
3-5-6 "The Tactician" as 5w6 on 2019-11-24 20:25:27pm
The Right-wing Authoritarianism Scale as cp6w5 on 2019-11-24 18:46:03pm
Melancholic as 1w9 on 2019-11-24 00:11:28am
Thor: The Dark World as 6w7 on 2019-11-23 21:35:37pm
Director Gori as 3w4 on 2019-11-23 21:31:11pm
Bikini Kill as 7w6 on 2019-11-23 17:45:55pm
Jonathan Coulton as 9wb on 2019-11-23 17:41:17pm
L7 as 8wb on 2019-11-23 17:36:44pm
Iran as 6w5 on 2019-11-22 22:43:02pm
Emotions as 4w3 on 2019-11-22 22:40:40pm
Physics as 9w8 on 2019-11-22 22:39:18pm
Logic as 5w6 on 2019-11-22 22:37:56pm
Willpower as 8wb on 2019-11-22 22:36:27pm
Carlton "Lassy" Lasater as 6w5 on 2019-11-22 14:08:35pm
Bertrand "Gus" Guster as 6w7 on 2019-11-22 14:06:09pm
Shawn Spencer as 7w6 on 2019-11-22 13:55:34pm
R2D2 as 6w7 on 2020-06-18 13:48:04pm
Frankenstein's Monster as 6w5 on 2019-11-21 14:42:39pm
Evil Morty as 8w9 on 2019-11-20 20:28:37pm
Summer Smith as 2w3 on 2020-04-12 14:39:54pm
Morty Smith as 9w1 on 2019-11-20 20:26:16pm
VELF (Akhmatova) as cp6w7 on 2020-01-27 12:24:33pm
Spain as 4w3 on 2019-11-20 20:07:15pm
Typhon as 8w7 on 2019-11-20 15:24:53pm
Aleister Crowley as 4w5 on 2019-11-20 14:42:12pm
Game of Thrones as 8w9 on 2019-11-20 13:35:18pm
Malcolm in the Middle as cp6w7 on 2019-11-20 13:27:28pm
Data as 5w6 on 2019-11-19 15:09:50pm
Distributism as 6w5 on 2019-11-18 16:22:50pm
Susan Sontag as 5w4 on 2019-11-17 23:09:13pm
Queen as 7w8 on 2021-01-04 14:59:35pm
Baseball as 6w7 on 2019-11-16 17:58:31pm
Wrestling as 8w9 on 2019-11-16 17:53:54pm
American Football as 8w7 on 2019-11-16 13:59:39pm
Boxing as 8w9 on 2019-11-16 13:57:16pm
Bullfighting as 3w4 on 2019-11-16 13:55:50pm
Fencing as 1w9 on 2019-11-16 13:53:41pm
Poker as 3w2 on 2019-11-16 12:14:23pm
Tic Tac Toe as 6w7 on 2019-11-16 12:11:43pm
Shadowrun 5e as cp5w6 on 2020-04-03 23:46:21pm
Dungeons and Dragons 3.5e as 5w6 on 2019-11-16 12:00:38pm
Checkers as 6w7 on 2019-11-29 11:51:18am
Kanye West as 6w7 on 2019-11-16 00:03:39am
Henry George as 5w6 on 2019-11-15 19:30:41pm
Wiccanism as 9w1 on 2019-11-15 18:33:25pm
Schizotypal personality disorder as 5wb on 2019-11-15 17:37:53pm
Cards Against Humanity as 7w8 on 2019-11-15 16:35:26pm
Dungeons and Dragons 5e as 7w6 on 2019-11-15 16:31:07pm
Chess as 5w6 on 2019-11-15 16:27:52pm
William Wallace as 6w7 on 2019-11-13 20:32:33pm
ESFPs as 7w6 on 2019-11-13 11:08:51am
INFJs as 1w9 on 2019-11-13 11:07:59am
Georgism/Geoism as 5w6 on 2019-11-15 18:19:49pm
Technoliberalism as cp5w6 on 2019-11-12 17:50:59pm
Screamin Jay Hawkins as 8w7 on 2019-11-11 08:39:16am
test entry as 6w7 on 2019-11-07 18:47:09pm
2-3-4-5-6-7 “The Disembodied Head and Heart” as 4wb on 2019-11-06 19:23:45pm
1-5-6-7-8-9 “the disembodied head and gut” as 7w8 on 2019-11-06 15:47:39pm
1-2-3-4-8-9: The Disembodied Heart and Gut as 2w1 on 2019-11-05 11:56:28am
Voltaire as 7w6 on 2019-11-03 17:07:21pm
Emmett Brown as 5w6 on 2019-12-31 08:15:22am
Marty McFly as 6w7 on 2019-11-01 20:33:02pm
Dende as 9w8 on 2019-11-01 20:07:18pm
Son Gohan as 9w1 on 2019-10-31 22:00:39pm
Piccolo as 8w9 on 2020-07-02 14:07:06pm
Chi-Chi as cp6wb on 2019-10-31 21:50:28pm
Son Goku as 7w6 on 2019-10-31 21:45:17pm
Krillin Sanchez as 6w5 on 2019-10-31 21:41:54pm
Dandere as 9w1 on 2019-10-28 22:38:18pm
Weezer as 6wb on 2019-10-27 20:01:59pm
Say It Ain't So as 6w5 on 2019-10-27 19:48:46pm
Grendel as 8w9 on 2019-10-27 19:42:08pm
Lily Orchard as 8w9 on 2019-10-26 14:56:12pm
Hillary Clinton as 1w2 on 2019-10-26 14:27:56pm
Michael Cohen as 6w5 on 2019-10-26 14:27:19pm
Max Stirner as 5w4 on 2019-10-25 19:54:34pm
John Calvin as 1w9 on 2019-10-24 14:55:06pm
Wish You Were Here- Pink Floyd as 4w5 on 2019-10-24 11:55:22am
Pink Floyd as 5w4 on 2019-10-24 10:00:53am
Sheep as 9w8 on 2019-10-24 09:57:18am
Pigs as 8w9 on 2019-10-24 09:54:59am
The Little Prince as 4w3 on 2019-10-24 09:47:09am
Dogs as 6w5 on 2019-10-23 13:45:23pm
SLE as 8w7 on 2019-10-23 13:41:45pm
Pantera as 8w7 on 2019-10-22 07:29:54am
Tim Wise as 6w5 on 2019-10-21 23:04:39pm
Stephen Colbert as 6w7 on 2019-10-21 22:53:50pm
Edward Elric as cp6w7 on 2019-10-20 10:41:06am
Anubis as 1w9 on 2019-10-19 12:18:39pm
Ants as 6w5 on 2019-10-19 12:07:05pm
The Addams Family as 6w7 on 2019-10-19 00:23:59am
Social as 3w2 on 2019-10-18 19:34:16pm
Sexual as 4w3 on 2019-10-18 19:29:42pm
Self-Preservation as 6w5 on 2020-07-24 17:52:43pm
Oscar Wilde as 4w3 on 2019-11-28 16:27:41pm
Lucifer as 3w4 on 2020-05-30 13:17:25pm
Heraclitus as 5w4 on 2019-10-14 18:16:34pm
2-8-9 "The Mama Bear" as 8w9 on 2019-10-14 16:03:20pm
Octopus's Garden as 9w1 on 2019-10-14 12:03:25pm
Eleanor Rigby as 9w1 on 2019-10-14 12:03:11pm
While My Guitar Gently Weeps as 9w1 on 2019-10-14 12:00:21pm
Rubeus Hagrid as 9w8 on 2019-10-13 23:15:22pm
Max Mayfield as 9w8 on 2019-10-13 23:14:42pm
Billy Hargrove as 8w7 on 2019-10-13 23:06:33pm
Steve Harrington as 6w7 on 2019-10-13 23:06:26pm
Jonathan Byers as 4w5 on 2019-10-13 23:00:52pm
Stranger Things as 6w5 on 2019-10-13 22:48:21pm
John Cleese as 7w8 on 2019-10-13 20:51:53pm
Mouse as 7wb on 2019-10-13 20:04:34pm
Ophelia as 6w5 on 2020-04-17 14:54:04pm
Road Runner as 7w6 on 2020-01-28 10:43:39am
ELFV (Rousseau) as 7w6 on 2019-11-28 18:24:36pm
Edmund Husserl as 5w6 on 2019-10-12 22:36:43pm
Sora as 7w8 on 2019-10-12 22:36:02pm
Shiro as 5w6 on 2019-10-12 22:35:14pm
The Offspring - Self Esteem as 6w7 on 2019-10-17 08:22:40am
Social 9 as 9w1 on 2019-10-12 22:31:00pm
Sexual 9 as 9w8 on 2019-10-12 22:30:16pm
Self-Preservation 8 as 8w9 on 2019-10-12 22:28:53pm
Social 8 as 8wb on 2019-11-03 15:09:25pm
Sexual 8 as 8w7 on 2019-10-12 15:32:50pm
Self-Preservation 7 as 7wb on 2019-11-15 17:33:25pm
Sexual 7 as 7w8 on 2019-10-12 15:30:16pm
Social 7 as 7w6 on 2019-10-12 15:26:29pm
Self-Preservation 6 as 6w5 on 2019-10-12 14:26:13pm
Social 6 as 6w7 on 2019-10-12 14:24:44pm
Sexual 6 as 6w5 on 2019-10-12 14:21:31pm
Sexual 5 as 5w4 on 2019-10-12 14:16:22pm
Self-Preservation 4 as 4w5 on 2019-10-12 14:14:35pm
Sexual 4 as 4wb on 2019-10-12 14:12:19pm
Social 4 as 4w3 on 2019-10-12 13:10:57pm
Sexual 3 as 3w4 on 2019-10-12 13:07:41pm
Social 3 as 3w2 on 2019-10-12 13:05:58pm
Self-Preservation 2 as 2w1 on 2019-10-12 13:05:18pm
Sexual 2 as 2w3 on 2019-10-12 13:03:05pm
Social 2 as 2w3 on 2019-10-12 13:01:45pm
Self-Preservation 1 as 1w9 on 2019-10-12 12:59:27pm
Social 1 as 1w2 on 2019-10-12 12:56:42pm
Self-Preservation 9 as 9w8 on 2019-10-12 12:25:03pm
Aslan as 8w9 on 2019-10-12 12:04:26pm
Kuudere as 5w4 on 2019-10-12 11:59:45am
Tim Burton as 4w3 on 2019-10-11 23:34:39pm
Dark Triad as 3w4 on 2019-10-11 22:56:06pm
Inception as 5w6 on 2019-11-28 18:34:55pm
Wendy Torrance as 2w1 on 2019-10-11 17:36:15pm
Jack Torrance as cp6w5 on 2019-10-11 17:35:10pm
Wile E. Coyote as 3w4 on 2019-10-11 14:44:27pm
Jack Black as 7w6 on 2020-12-24 14:25:13pm
8w2 "The Leader" as 8w7 on 2019-10-10 13:27:51pm
Best Grades in School as 1w9 on 2019-10-10 13:23:48pm
MBTI Delta as 6wb on 2020-07-19 22:26:37pm
James Halliday as 5w6 on 2019-10-08 11:53:58am
Twitch as 3w2 on 2020-07-20 00:38:35am
Roderick Chisholm as 5w6 on 2019-10-07 12:53:46pm
Mark Twain as 6w7 on 2019-10-06 22:25:40pm
Democracy as 6w7 on 2021-01-15 12:38:19pm
Greta Thunberg as 1w9 on 2019-10-04 16:09:15pm
Amy as 2w1 on 2019-10-04 15:17:14pm
Boyinaband as 4w3 on 2019-10-04 09:56:08am
Van Halen as 7w8 on 2020-01-03 15:39:08pm
CGP Grey as 5w6 on 2019-10-02 17:00:34pm
Friedrich Heinrich Jacobi as 6w5 on 2019-10-02 11:06:03am
Victor Frankenstein as 5w4 on 2019-10-01 15:58:15pm
TJ Kirk as cp6w5 on 2019-10-01 15:44:07pm
Joe Biden as 6w7 on 2019-10-01 13:09:58pm
The Democratic Party as 6wb on 2020-05-30 17:10:08pm
Internalism as 5wb on 2019-09-30 12:03:35pm
Agnosticism as 5wb on 2019-12-14 16:12:24pm
6w2 "The Friend" as 6w7 on 2019-09-30 06:47:27am
Morpheus as 9w1 on 2019-09-30 06:45:27am
Olga of Kiev as 8w9 on 2019-09-29 14:59:20pm
Blade Runner 2049 as 5w6 on 2019-09-28 18:32:38pm
1-3-4: The Extremo Perfectionist as 3w4 on 2019-09-28 00:45:44am
Roomer as 5w4 on 2019-09-27 22:21:15pm
Mike Wazowski as 3w4 on 2019-09-27 22:15:00pm
Kermit the Frog as 9w1 on 2019-09-28 00:43:00am
Oscar the Grouch as 9w8 on 2019-09-27 22:10:12pm
Big Bird as 9w1 on 2019-09-27 17:17:29pm
The Hero as 3w4 on 2019-09-26 18:15:31pm
The Sage as 5wb on 2019-09-27 17:18:49pm
The Innocent as 9w1 on 2019-09-26 18:07:15pm
Introverted Logic (Ti) as 5w6 on 2019-09-26 18:00:45pm
Extroverted Intuition (Ne) as 7w6 on 2019-09-26 17:57:35pm
Extroverted Sensing (Se) as 8wb on 2019-09-26 17:56:49pm
Thales of Miletus as 5w6 on 2019-09-26 15:05:49pm
4w6 "The Crybaby" as 4wb on 2019-09-25 17:09:51pm
The Hermit as 5w4 on 2019-09-25 13:43:27pm
The Empress as 2w3 on 2020-12-28 16:18:34pm
The Magician as 1w9 on 2019-09-25 13:39:34pm
1-7-8 "The Honorbound Crook" as 8wb on 2019-09-25 12:38:21pm
Inductive Reasoning as 5w6 on 2019-09-25 12:37:15pm
2-4-7: The Emotivist as 4w3 on 2019-09-25 12:05:47pm
Scatman John as 9w1 on 2019-09-25 09:50:40am
Scatman John as cp7w6 on 2019-09-25 08:53:30am
Deductive Reasoning as 5w6 on 2019-09-24 14:58:04pm
Hilaire Belloc as 6w5 on 2019-09-24 12:24:04pm
The Fool as 7w8 on 2020-12-28 16:14:34pm
Generation X as 6w5 on 2019-09-24 11:50:29am
Generation Z as 9w8 on 2019-09-23 16:33:27pm
Canada as 9w1 on 2019-09-23 14:09:52pm
Fascist Italy (Mussolini) as 8w9 on 2019-09-23 14:04:07pm
Sweden as 9w8 on 2019-09-23 14:00:29pm
NATO as 6w5 on 2019-09-23 13:59:19pm
India as 6w7 on 2019-09-23 13:55:27pm
Sociology Major as 6w5 on 2020-01-17 22:01:30pm
cp6w5 as cp6w5 on 2019-09-22 10:22:40am
cp6w7 as cp6w7 on 2019-09-22 10:20:32am
cp7w6 as cp7w6 on 2019-09-22 10:14:20am
cp5w6 as cp5w6 on 2019-09-22 10:12:19am
1w2 as 1w2 on 2019-09-20 18:56:13pm
1w9 as 1w9 on 2019-09-20 18:23:17pm
Aphrodite as 2w3 on 2019-09-19 19:58:13pm
Ares as 8w7 on 2019-09-19 19:55:46pm
Philip Marlowe as 6w5 on 2019-09-18 11:49:37am
Hades as 9w8 on 2019-09-18 11:40:41am
Hera as 2w1 on 2019-09-18 08:59:51am
Dionysus as 7w8 on 2019-09-18 08:47:47am
Apollo as 3wb on 2019-09-17 15:11:46pm
Artemis as 3w4 on 2019-09-17 15:08:32pm
Hermes as 7wb on 2019-09-17 09:22:23am
Athena as 1w9 on 2019-09-17 09:18:46am
Zeus as 8w9 on 2019-09-17 09:03:28am
William P. Alston as 9w1 on 2019-09-16 16:38:44pm
Jayne Cobb as 8w7 on 2019-09-15 14:13:42pm
Malcolm Reynolds as 7w8 on 2019-09-15 14:11:39pm
Dewey Wilkerson as 9w1 on 2019-09-15 10:28:04am
Malcolm as 6w5 on 2019-09-15 10:26:27am
Marina Abramovic as 4w3 on 2019-09-15 10:20:38am
Nirvana as 9w8 on 2019-09-15 10:17:11am
Jean-Luc Godard as 5w4 on 2019-09-14 23:20:59pm
Jack Johnson as 9w1 on 2019-09-14 23:19:59pm
Guillermo del Toro as 4w3 on 2019-09-13 17:53:31pm
The Academic Nerd as 5w6 on 2019-09-13 15:36:02pm
The Wannabe Gangsta as 3w4 on 2019-09-13 15:34:28pm
Laura Jane Grace as 9w8 on 2019-10-11 14:48:10pm
Overachiever as 3wb on 2019-09-13 11:22:59am
The Troublemaker as cp7w6 on 2020-01-26 23:25:43pm
YouTube as 3w2 on 2019-09-11 18:58:23pm
Chemistry Major as 5w6 on 2019-09-11 18:23:32pm
Transcendental Idealism as 1w9 on 2020-01-27 20:17:09pm
Economics Major as 5w6 on 2019-09-10 18:42:53pm
Computer Science Major as 5w6 on 2019-09-10 18:38:51pm
Musical-rhythmic intelligence as 9w1 on 2019-09-10 16:50:31pm
Mike Wheeler as 6w7 on 2019-09-09 22:12:05pm
Mother Teresa as 2w1 on 2019-09-09 20:59:45pm
Balance of power (international relations) as 6w5 on 2019-09-09 15:12:01pm
Pragmatism as 3wb on 2020-12-23 14:56:58pm
Interpersonal intelligence as 2w3 on 2019-09-08 14:04:00pm
Donna Haraway as 7w6 on 2019-09-06 12:38:13pm
Physics Major as 5w6 on 2019-09-04 15:24:33pm
Joseph Campbell as 9w1 on 2019-09-03 19:10:51pm
Calvinism as 1w2 on 2019-11-28 10:17:20am
Episcopalian as 2w1 on 2019-09-02 22:40:40pm
Julius Caesar (Gaius Iulius Caesar) as 3w4 on 2019-09-01 16:14:10pm
Scholasticism as 1w9 on 2020-04-05 14:10:46pm
The Princess Bride as 9wb on 2019-08-31 22:45:32pm
Romanticism as 4wb on 2019-08-31 19:20:00pm
The Enlightenment as 7w6 on 2019-08-31 17:30:10pm
Rusty Cage as 7w8 on 2019-08-31 16:55:11pm
Asceticism as 1w9 on 2019-08-31 16:50:36pm
Sexual 1 as 1w2 on 2019-08-31 16:36:42pm
Propagandhi as cp6w7 on 2019-08-31 15:40:46pm
5-7-8 "The Conqueror" as cp5w6 on 2019-12-18 19:11:36pm
The Clash as cp6w7 on 2019-10-10 13:43:53pm
Bad Religion as 1w9 on 2019-08-30 18:46:23pm
9-1-2: "The Samaritan" as 2w1 on 2020-07-15 20:33:37pm
Tom Haverford as 3w2 on 2019-08-29 22:01:50pm
Leslie Knope as 2w3 on 2019-08-29 21:54:02pm
Andy Dwyer as 7w6 on 2019-08-29 21:51:06pm
April Ludgate as 9w8 on 2019-08-29 21:48:53pm
Ron Swanson as 9w8 on 2019-12-25 21:17:00pm
3-4-8: The Thespian as 3w4 on 2019-08-29 21:44:43pm
3-8-9 "The Dragon" as 8w9 on 2019-08-29 17:07:33pm
1-6-8: The Knight as cp6w5 on 2019-09-25 12:10:47pm
Sufism as 9w1 on 2019-08-29 15:12:23pm
The mystery person who keeps adding and typing foreign movies as 4w3 on 2019-08-29 13:58:26pm
4-6-7: The Adventurer as 7w6 on 2019-08-29 11:04:52am
Kabbalah as 5wb on 2020-02-16 13:08:05pm
3-6-7 "The Herald" as 6w7 on 2019-08-29 00:15:50am
4-5-7: The Surrealist as 4w5 on 2019-08-28 21:01:09pm
1-6-9 "The Monastic" as 1w9 on 2020-07-12 15:49:11pm
3-4-5: The Renaissance Man as 3w4 on 2019-08-28 19:30:23pm
Karl Popper as 5w6 on 2020-01-19 22:18:34pm
Bertrand Russell as 5w6 on 2020-01-03 13:38:42pm
Dan Olson as 5w6 on 2019-08-28 17:31:02pm
1-2-3 "The Schoolmaster" as 1w2 on 2019-08-28 17:24:34pm
1-5-9 "The Hermeticist" as 5w4 on 2020-06-08 15:40:05pm
1-4-9 "The Mystic" as 9w1 on 2019-08-28 16:42:50pm
The Inventor: 3-5-7 as 7w6 on 2019-08-28 16:32:27pm
Sociopaths as 8w9 on 2019-08-28 15:11:37pm
Sri Aurobindo Ghose as 1w9 on 2020-04-29 12:30:54pm
Thomism as 1w9 on 2019-10-24 14:45:19pm
Rap as cp6w7 on 2019-12-02 20:51:48pm
The Objectivist as 5w6 on 2019-08-28 16:34:19pm
The Wacky Meme Kid as 7w6 on 2019-08-25 23:55:03pm
The Wizard of Oz as 3w4 on 2019-08-25 23:52:37pm
Glinda the Good Witch as 2w1 on 2019-08-25 23:51:54pm
The Wizard of Oz as 7w6 on 2019-08-25 23:50:36pm
The Cowardly Lion as 6w7 on 2019-08-25 23:45:21pm
Josef Stalin as 8w9 on 2019-08-25 22:22:14pm
E.T. the Extra-Terrestrial as 7w6 on 2019-08-24 03:04:04am
E.T. as 9w1 on 2019-08-24 02:58:56am
Darth Maul as 8w9 on 2019-08-23 13:47:28pm
Southern US ("Dixie") as cp6w7 on 2020-11-04 19:08:48pm
Clint Barton "Hawkeye" as 6w5 on 2019-08-23 13:27:32pm
Boris Johnson as 3w2 on 2019-08-23 10:54:57am
Martin Heidegger as 6w5 on 2020-11-07 19:43:32pm
Martin Heidegger as 4w5 on 2019-08-22 23:25:40pm
Mahatma Gandhi as 1w9 on 2019-08-22 23:11:32pm
Titanic as 2w3 on 2019-08-22 22:28:48pm
J. K. Rowling as 9w1 on 2019-08-22 22:14:11pm
Newton Scamander as 9w1 on 2019-08-22 22:11:49pm
Luna Lovegood as 9w1 on 2019-08-22 22:10:10pm
"Moaning" Myrtle Warren as 4w3 on 2019-08-22 22:06:51pm
Robin as 9w8 on 2019-08-22 22:06:24pm
Brainer as 9w8 on 2019-08-25 12:13:15pm
SpongeBob SquarePants as 7w6 on 2019-08-22 15:36:16pm
Family Guy as cp7w6 on 2019-08-22 15:33:08pm
Hermann Gottlieb as 5w6 on 2019-08-22 15:15:42pm
Newton Geiszler as 7w6 on 2019-08-22 15:14:58pm
Eminem as cp6w5 on 2019-08-22 13:11:45pm
Jabba the Hutt as 9w8 on 2019-08-20 23:03:42pm
Gurgi as 9w1 on 2019-08-20 12:38:19pm
Taran as 3w2 on 2019-08-20 12:16:13pm
Fflewddur Fflam as 7w6 on 2019-08-20 10:20:01am
Grell Sutcliff as 7w6 on 2019-08-19 23:37:52pm
Dwight Schrute as 6w5 on 2019-08-19 15:37:46pm
Stanley Hudson as 9w8 on 2019-08-19 15:36:53pm
Michael Scott as 7w6 on 2019-08-19 15:35:30pm
Ichigo Kurosaki as 9w8 on 2019-08-19 14:19:52pm
Discord as 7w8 on 2019-10-09 22:28:23pm
Nick Carraway as 9w8 on 2019-08-18 14:41:11pm
The Sorting Hat as 5w6 on 2020-04-02 17:06:06pm
Trinity as 3w4 on 2019-08-18 12:07:01pm
The Oracle as 2w1 on 2019-08-18 12:05:34pm
Neo as 5w4 on 2021-01-07 02:17:18am
Agent Smith as 6w5 on 2019-12-24 13:52:28pm
Introverted Ethics (Fi) as 1w2 on 2019-08-18 11:30:17am
Introverted Sensing (Si) as 9wb on 2019-08-18 11:27:04am
Extroverted Logic (Te) as 3w2 on 2019-09-26 13:15:41pm
Introverted Intuition (Ni) as 5w4 on 2019-08-18 11:22:43am
Extroverted Ethics (Fe) as 2w3 on 2019-08-18 11:20:38am
Teleological Argument as 5w6 on 2019-08-17 23:54:50pm
Paleoconservatism as 6w5 on 2019-08-17 23:42:57pm
Richard Hammond as 6w7 on 2019-08-17 18:07:21pm
Jeremy Clarkson as 7w8 on 2019-08-17 03:43:18am
Id as 7w8 on 2020-02-22 18:05:40pm
Fyodor Dostoyevsky as 4w5 on 2019-08-16 14:43:46pm
Margaret Thatcher as 1w2 on 2019-08-16 02:30:10am
The Myers Briggs Type Indicator as 5w6 on 2019-08-18 08:45:27am
The Enneagram as 9w1 on 2019-08-16 02:16:28am
Incels as 6w5 on 2019-08-15 14:22:52pm
Martin Luther as 1w2 on 2019-08-15 12:19:38pm
Pentecostal as 6w7 on 2020-12-19 09:17:17am
Anglicanism as 6w5 on 2019-08-15 11:34:01am
Sakinorva Databank as 5w6 on 2019-08-14 18:04:04pm
Rey as 6w7 on 2019-08-14 17:28:28pm
Streetlight Manifesto as 7w6 on 2020-03-17 12:06:32pm
8w9 "The Gentle Giant" as 8w9 on 2019-08-14 11:32:07am
8w7 "The Bully" as 8w7 on 2019-08-14 11:30:47am
Mace Windu as 1w9 on 2019-08-14 11:23:35am
Mothers Basment as 9w1 on 2019-08-13 15:46:17pm
Black Mage as 8wb on 2019-08-13 15:36:10pm
White Mage as 1w2 on 2021-01-03 20:50:49pm
Red Mage as 7w6 on 2019-08-13 15:29:54pm
uwu as 9w1 on 2019-08-13 15:27:13pm
Zoinks as 9w8 on 2019-08-12 13:02:50pm
Negativism as 5w4 on 2019-08-07 20:44:10pm
Positivism as 7w8 on 2019-08-07 20:43:27pm
C.S. Joseph as 3w2 on 2019-08-07 14:07:08pm
Eleven as 6w5 on 2019-08-07 09:25:59am
Francis Bacon as 3wb on 2020-02-05 13:38:37pm
Justin King as 9w8 on 2019-12-25 21:27:28pm
Choleric as 8w7 on 2019-08-06 15:16:18pm
Phlegmatic as 9w1 on 2019-08-06 15:13:42pm
Sanguine as 7w6 on 2019-08-06 12:29:21pm
Billie Eilish - Bad Guy as 4w3 on 2020-06-18 13:12:22pm
Kamidere as 3w4 on 2019-08-05 21:45:14pm
Yandere as 2w3 on 2019-08-05 21:43:30pm
Tsundere as cp6w7 on 2019-08-05 21:41:38pm
Saitama as 9w8 on 2019-08-05 17:32:24pm
Millennials as 9w1 on 2019-08-05 17:30:28pm
"I'm Too Sexy" by Right Said Fred as 7w6 on 2019-08-04 20:31:35pm
Artist as 4w3 on 2020-08-11 13:56:36pm
CEO as 3wb on 2019-08-04 18:07:15pm
Richard Nixon as 6w5 on 2019-08-03 00:06:51am
Sybill Trelawney as 5w4 on 2019-08-02 23:59:38pm
Ian "Lemmy" Kilmister as 9w8 on 2019-08-02 22:58:38pm
Elsa as 1w9 on 2019-08-02 20:30:48pm
Protest the Hero as 4w5 on 2020-03-24 10:50:37am
Chief Hopper as 8w9 on 2019-08-02 19:39:12pm
Teacher as 6w7 on 2019-08-02 14:27:05pm
Profesor as 5w6 on 2019-08-02 18:25:22pm
LSE as 3w2 on 2019-12-16 18:00:16pm
ESE as 2w3 on 2019-08-02 14:21:35pm
IEI as 4w5 on 2019-08-02 14:19:23pm
IEE as 7w6 on 2019-08-02 14:14:32pm
Hamilton as 3w4 on 2019-08-06 23:04:17pm
Marquis de Lafayette as 7w6 on 2019-08-02 11:53:40am
Antonin Scalia as 6w5 on 2019-08-02 11:39:30am
Openness as 7w6 on 2019-07-31 04:17:23am
Conscientiousness as 1w9 on 2019-07-31 04:11:57am
Neuroticism as 6w7 on 2019-07-31 04:08:56am
Agreeableness as 9w1 on 2019-07-31 04:04:36am
Extraversion as 7w6 on 2019-07-31 04:03:32am
Violet Baudelaire as 6w5 on 2019-07-31 01:41:04am
Metaethics as 1w9 on 2020-12-07 09:55:02am
Care Ethics as 2w1 on 2019-07-30 01:51:51am
Egoism as 3w4 on 2019-07-30 11:36:26am
Divine Command Theory as 6w5 on 2019-07-30 01:04:44am
Virtue Ethics as 1wb on 2020-11-16 17:44:55pm
Deontological Ethics as 1w9 on 2019-07-29 00:38:38am
Utilitarianism as 1w2 on 2020-08-11 19:44:27pm
Natural Law Theory as 5w6 on 2020-09-30 13:23:04pm
Moral relativism as 9w8 on 2019-07-28 20:55:44pm
Francis of Assisi as 7w6 on 2019-07-28 17:01:49pm
Video Essays as 5w4 on 2019-07-27 21:44:19pm
Compatibilism as 5wb on 2020-12-23 17:18:04pm
Ecologism as 1w9 on 2020-04-16 11:05:03am
Survivalism as cp5w6 on 2019-07-27 07:16:26am
Corporatism as 8w9 on 2019-07-27 05:09:37am
Anarcho-Capitalism as 5w6 on 2020-06-18 17:16:06pm
Social Democracy as 2w1 on 2019-08-17 23:27:23pm
7w4 "The Improviser" as 7w6 on 2019-07-26 20:18:42pm
Rabbits as 5w4 on 2019-07-30 11:40:28am
David as 3w4 on 2020-06-19 14:13:23pm
Robert Neville as cp5w6 on 2019-07-25 22:00:31pm
Self-Preservation 3 as 3w4 on 2019-07-26 01:09:07am
Emma as 2w1 on 2019-07-26 01:01:01am
Naturalistic intelligence as 9wb on 2019-09-25 17:30:48pm
Visual-spatial intelligence as 9w8 on 2019-07-25 22:26:54pm
Verbal-linguistic intelligence as 5w4 on 2019-07-25 14:46:03pm
Bodily-kinesthetic intelligence as 9w8 on 2019-07-25 18:45:09pm
Intrapersonal intelligence as 9w1 on 2019-07-25 18:44:18pm
Logical-mathematical intelligence as 5w6 on 2019-07-25 18:43:03pm
Indiana Jones (Henry Jones) as 9w8 on 2019-07-23 17:17:31pm
Bob Parr "Mr. Incredible" as 3w2 on 2019-07-23 05:53:06am
Buddy Pine "Syndrome" as 3w4 on 2019-07-23 01:52:13am
Edna Mode as 3w4 on 2019-07-23 05:51:53am
Helen Parr "Elastigirl" as 1w2 on 2019-07-23 05:50:29am
2-5-8 "The Strategist" as 8w9 on 2019-07-23 05:46:26am
Miles Morales as 6w7 on 2019-07-23 05:16:19am
Israel as 6w5 on 2019-07-23 04:03:25am
Richard Spencer as 3w4 on 2019-07-23 03:56:52am
Prefrontal cortex as 5w6 on 2019-07-23 02:32:34am
Christmas Island as 4w5 on 2019-07-22 22:59:35pm
Led Zeppelin as 9w8 on 2019-07-22 22:48:22pm
479 ''the goofball'' as 7w6 on 2019-07-22 21:27:53pm
2-3-4 "The Heart" as 4w3 on 2019-07-22 21:25:48pm
1-4-8 "The Prophet" as 4wb on 2019-12-16 15:58:34pm
1-6-8 "The Oppressed Straight White Male" as cp6w5 on 2019-07-22 21:19:49pm
269 ''the consolation prize'' as 9w1 on 2019-07-22 21:11:48pm
1-3-8 "The Tyrant" as 8w9 on 2019-12-16 15:12:17pm
Action as 7w8 on 2019-07-21 02:53:27am
Don Quixote as 7w6 on 2019-07-20 21:00:30pm
Demiurge as 3w2 on 2019-08-14 22:58:22pm
Shalltear Bloodfallen as 3w2 on 2019-07-20 19:01:53pm
Cocytus as 6w5 on 2019-07-20 14:58:52pm
Gluttony as 9w8 on 2019-08-22 23:42:46pm
Urban Dictionary as cp6w7 on 2019-07-20 03:23:39am
Billie Eilish as 4w3 on 2019-07-19 20:45:49pm
Aurelio Voltaire as 7w8 on 2019-07-19 20:42:49pm
The Who as 7w6 on 2019-08-02 12:05:27pm
Hal Wilkerson as 9w1 on 2019-07-19 18:36:34pm
Francis Wilkerson as cp6w5 on 2019-07-19 18:34:44pm
Dan Harmon as 7w8 on 2020-09-26 16:36:16pm
First Blood as 8w9 on 2019-07-18 16:53:07pm
Platoon as 8w9 on 2019-07-18 16:48:31pm
Blazing Saddles as 7w8 on 2019-07-18 16:43:17pm
Bao as 2w1 on 2019-07-18 16:38:22pm
Facebook as 2w3 on 2020-03-31 19:45:17pm
Will Byers as 9w1 on 2019-07-17 05:09:52am
Joyce Byers as 6w7 on 2019-07-17 05:08:01am
Lucas Sinclair as 6w5 on 2019-07-17 04:59:32am
Solipsism as 5w4 on 2019-07-16 21:55:43pm
Grunge Rock as 9w8 on 2019-07-15 20:27:39pm
Bro Country as 7w8 on 2019-07-15 20:21:40pm
Outlaw Country as 8w9 on 2019-07-17 05:11:04am
Marcus Aurelius as 1w9 on 2019-07-15 20:05:48pm
Extraversion as 7w8 on 2020-12-19 18:54:37pm
Sensing as 6w7 on 2020-12-19 18:58:37pm
John Rambo as 9w8 on 2019-07-15 16:57:49pm
Mac Eliot as 6w5 on 2019-07-15 16:54:05pm
Blain Cooper as 8w9 on 2019-07-15 16:52:01pm
Dies Horribly as 9w1 on 2020-08-12 17:32:23pm
Meursault as 9w8 on 2019-07-15 01:56:08am
Rational as 5w6 on 2019-07-15 05:42:17am
Idealist as 9w1 on 2019-09-25 12:01:50pm
Guardian as 1w2 on 2019-07-15 05:38:45am
Artisan as 7w8 on 2019-07-15 05:36:51am
ESFJs as 2w3 on 2019-07-15 03:51:22am
ENTJs as 8w7 on 2019-11-03 14:49:53pm
INFPs as 4w5 on 2019-07-15 03:45:24am
ESTPs as 7w8 on 2019-07-15 03:20:03am
ENTPs as 7wb on 2020-07-19 11:48:59am
INTJs as 5w6 on 2019-07-15 03:17:27am
INTPs as 5wb on 2020-06-03 16:49:18pm
ISTJs as 6w5 on 2019-07-15 02:57:42am
ISTPs as 9w8 on 2019-07-26 01:10:09am
ISFJs as 6w5 on 2019-07-15 02:55:29am
ENFJs as 2w3 on 2019-07-15 02:54:15am
ISFPs as 9w1 on 2019-07-15 02:53:07am
ENFPs as 7w6 on 2019-07-15 02:52:19am
5w8 "The Thinker" as cp5w6 on 2019-07-14 22:20:24pm
2w3 "The Manipulator" as 2w3 on 2019-07-14 22:18:43pm
Shrek as 9w8 on 2019-07-14 22:16:24pm
Lisa as 3w4 on 2020-01-06 12:39:52pm
Johnny as 4w3 on 2019-07-14 22:13:51pm
Kurt Cobain as 4w5 on 2020-03-11 16:48:54pm
Paranoid personality disorder as 6w5 on 2019-07-14 21:38:41pm
Antisocial personality disorder as 8w7 on 2019-07-14 21:37:55pm
Narcissistic personality disorder as 3w4 on 2019-07-14 21:34:13pm
Dependent personality disorder as 6w5 on 2019-07-14 21:32:38pm
Obsessive-compulsive personality disorder as 1wb on 2019-09-04 11:11:09am
Mikami Teru as 1w9 on 2019-07-14 21:23:05pm
Ant-Man and the Wasp as 6w5 on 2019-07-14 19:53:22pm
Genji as 6w7 on 2019-07-14 19:49:00pm
Widowmaker as 8w9 on 2019-07-14 19:48:07pm
Mercy as 2w1 on 2019-07-14 19:47:41pm
Reinhardt as 7w8 on 2019-07-14 19:47:18pm
Junkrat as 7wb on 2019-07-14 19:45:49pm
Bastion as 9w1 on 2019-07-14 19:44:52pm
Orisa as 1w2 on 2019-07-14 19:44:12pm
Aladdin as 9w8 on 2019-07-14 18:40:24pm
Genie as 7w6 on 2019-07-14 18:39:57pm
Thor as 8w7 on 2019-08-24 23:39:15pm
6w1 "The Normie" as 6w5 on 2019-07-14 04:04:38am
8w6 "The Protector" as 8w9 on 2019-07-14 04:03:20am
7w1 "The Judging Perceiver" as 7w6 on 2020-06-17 00:08:33am
8w1 "The Dictator" as 8w9 on 2019-07-14 04:48:37am
5w3 "The Inventor" as 5w6 on 2019-07-14 02:45:11am
5w9 "The Basement Dweller" as 5wb on 2019-07-14 02:44:24am
3w1 "The Achiever" as 3w4 on 2019-07-14 02:43:06am
1w8 "The Stickler" as 1w2 on 2019-07-14 02:41:42am
4w9 "The Artist" as 4w5 on 2019-07-14 02:41:12am
6w9 "The Phobic Six" as 6w5 on 2019-07-14 02:39:45am
1w6 "The Judge" as 1wb on 2019-07-14 02:36:46am
6w8 "The Counterphobic Six" as cp6w7 on 2019-07-14 02:34:57am
5w7 "The Experimentalist" as 5w4 on 2019-07-14 02:32:39am
Harley Poe as 4w5 on 2019-07-14 02:31:27am
3w7 "The Charismatic" as 3w2 on 2019-07-14 00:53:42am
3w8 "The Winner" as 3w2 on 2020-04-27 15:47:12pm
8w3 "The Executive" as 8w9 on 2019-07-14 00:50:12am
3w5 "The Tactician" as 3w4 on 2019-07-14 00:42:14am
4w8 "The Tragic Villain" as 4wb on 2019-11-26 18:47:38pm
1w7 "The Utopist" as 1w2 on 2019-10-25 19:47:41pm
2w4 "The Feeler" as 2wb on 2019-12-08 18:19:05pm
8w4 "The Edgelord" as 8w7 on 2019-07-14 00:35:31am
2w9 "The Lover" as 2w1 on 2019-07-14 00:32:57am
1w3 "The Perfectionist" as 1wb on 2019-09-17 16:22:12pm
4w1 "The Idealist" as 4w5 on 2019-07-13 22:22:47pm
6w1 "The Loyal Assistant" as 6w5 on 2019-07-13 18:21:40pm
3w6 "The Salesman" as 3w2 on 2019-07-13 22:21:09pm
8w5 "The Lone Wolf" as 8w9 on 2019-07-13 22:20:19pm
6w3 "The Craftsman" as 6w7 on 2019-07-13 22:19:42pm
1w5 "The Asian Father" as 1w9 on 2019-07-13 22:18:35pm
7w9 "The Optimist" as 7w6 on 2019-07-13 22:17:55pm
7w3 "The Party Animal" as 7wb on 2019-07-13 22:17:03pm
7w2 "The Venus" as 7w6 on 2019-07-13 22:15:34pm
9w3 "The Underdog" as 9w8 on 2019-07-13 19:38:00pm
4w7 "The Eccentric" as 4w3 on 2019-07-13 15:36:21pm
3w9 "The Icon" as 3wb on 2019-07-13 19:34:39pm
7w5 "The Explorer" as 7w6 on 2019-07-13 19:33:07pm
ResoluteSoul as 9w1 on 2019-08-07 18:37:44pm
Tenacious D as 7w8 on 2019-07-13 17:25:21pm
McDonald's as 6w7 on 2019-07-13 17:12:57pm
D.Va as 7w6 on 2020-03-10 16:38:10pm
6w4 "The Anti-Conformist" as cp6w7 on 2020-02-29 00:48:51am
Police Officer as 6w5 on 2019-07-12 20:42:17pm
Scientist as 5w6 on 2019-07-12 20:33:06pm
Athlete as 3wb on 2020-12-15 13:16:38pm
Nurse as 2w1 on 2019-07-12 20:30:58pm
Doctor as 3w4 on 2019-09-06 11:43:05am
Nate Westen as 7w8 on 2019-07-11 21:13:36pm
FBI as 6w5 on 2019-07-11 20:44:32pm
ENFP as 7w6 on 2019-07-10 23:40:36pm
ESFP as 7w8 on 2019-07-10 23:38:51pm
ENTP as 7wb on 2020-07-21 10:50:33am
ESTP as 7w8 on 2020-07-21 10:21:06am
ENTJ as 8w9 on 2020-12-24 16:31:15pm
ESTJ as 3w4 on 2019-07-10 19:35:16pm
ENFJ as 2wb on 2020-07-03 07:38:43am
ESFJ as 2w3 on 2019-07-10 23:27:28pm
Madeline Westen as 2w3 on 2019-07-10 19:40:15pm
Fiona Glenanne as 8w7 on 2019-07-10 19:37:46pm
Sam Axe as 7w8 on 2019-07-10 19:34:14pm
Michael Weston as 6w5 on 2019-07-10 19:41:26pm
Beta Quadra as cp6w5 on 2019-07-10 03:00:27am
Brahma as 5w4 on 2019-07-09 02:55:23am
Danny Brown as 7w6 on 2019-07-09 02:54:09am
Rukia Kuchiki as 8w9 on 2019-07-08 22:05:35pm
Tom Riddle / Lord Voldemort as 3w4 on 2019-07-08 21:53:02pm
Walker Percy as 4w5 on 2019-12-08 17:27:36pm
St. Justin The Martyr as 5w6 on 2019-07-08 21:04:34pm
4w2 "The Sensitive Soul" as 4w3 on 2019-07-08 17:32:43pm
9w2 "The Peacemaker" as 9w1 on 2019-07-08 17:31:24pm
Bilbo Baggins as 6w7 on 2019-07-08 17:20:00pm
Smaug as 8w9 on 2019-07-08 17:17:17pm
5w2 "The Mentor" as 5w4 on 2019-10-25 19:33:08pm
9w1 the forgotten as 9w1 on 2019-07-08 00:47:45am
Islam as 1w2 on 2020-12-19 09:16:07am
Odin as 5w4 on 2019-07-07 21:33:01pm
Jacobus as 4wb on 2020-08-12 16:26:03pm
Leonardo da Vinci as 7w6 on 2019-07-07 20:52:56pm
Camron Frye as 9w1 on 2019-07-07 19:44:25pm
Ferris Bueller's Day Off as 7w6 on 2019-07-07 19:39:17pm
Ferris Bueller as 7w8 on 2019-07-07 19:36:58pm
Rumi as 4w3 on 2019-11-27 11:01:02am
Malcolm X as 8w9 on 2019-07-07 00:02:17am
Pete Buttigieg as 3w2 on 2019-11-21 13:06:58pm
Scott Lang/Ant-Man as 7w6 on 2019-07-05 17:55:33pm
Bruce Banner "Hulk" as 9w1 on 2019-07-05 21:45:30pm
Erik Killmonger as 8w9 on 2019-07-05 21:39:19pm
The Bullied Misfit as 9w1 on 2019-07-05 21:21:23pm
so/sx as 2w3 on 2019-07-05 21:16:09pm
sp/sx as 9w8 on 2020-07-24 17:52:16pm
so/sp as 3w2 on 2020-07-24 17:57:27pm
sp/so as 6w5 on 2019-07-05 21:08:53pm
sx/sp as 4w5 on 2019-07-05 21:08:01pm
Oliver “Olly” Thorn as 3w4 on 2019-07-05 20:10:05pm
Roger Scruton as 6w5 on 2019-07-05 17:59:18pm
jt as 6w5 on 2020-01-17 23:53:24pm
most likely to dislike the positive outlook types as 5w4 on 2019-07-05 03:37:20am
Hamlet as 4w5 on 2019-07-04 22:38:05pm
Sora as 7w6 on 2019-07-04 21:56:16pm
ILI as 5w4 on 2019-07-03 23:13:43pm
Ministry as 7w8 on 2019-07-02 16:21:20pm
Captain Marvel as 6w7 on 2019-12-16 18:16:24pm
S.O.D. as cp7w6 on 2019-07-02 16:01:08pm
Art History Major as 9w1 on 2019-07-01 19:39:06pm
Philosophy Major as 5wb on 2020-08-12 15:52:39pm
Brian Griffin as 9wb on 2020-07-24 11:07:26am
Thor: Ragnarok as 7w6 on 2019-07-26 12:19:18pm
Ian Malcolm as 6w5 on 2019-06-30 05:41:29am
Spider-Man: Homecoming as 3w2 on 2019-06-30 05:31:41am
Doctor Strange as 5w4 on 2019-06-29 22:07:34pm
Guardians of the Galaxy as 7w6 on 2019-06-29 05:03:27am
Conservative Party as cp6w5 on 2019-10-01 13:04:46pm
Labour Party as 1w2 on 2019-06-29 05:02:38am
Anatomy as 5w6 on 2019-06-29 05:01:09am
9w4 "The Romantic" as 9w1 on 2019-06-29 00:23:18am
Libertarian Party as 9w8 on 2019-06-28 16:39:00pm
Rent is too Damn High Party as 8w9 on 2019-08-31 01:37:59am
Captain America: The Winter Soldier as 6w5 on 2019-06-28 16:25:37pm
EVLF (Ghazali) as 7w6 on 2019-06-27 19:43:59pm
Captain America: The First Avenger as 1w9 on 2019-06-27 19:35:51pm
Iron Man 3 as cp6w5 on 2019-12-25 23:48:14pm
Agnostic Atheism as 5w6 on 2019-06-26 15:48:11pm
Thor as 7w8 on 2019-06-26 15:46:45pm
The Green Party as 1w2 on 2019-06-25 22:52:37pm
The Scientific Method as 5w6 on 2019-06-25 18:53:41pm
Venom as 8w7 on 2020-09-10 10:39:56am
Iron Man 2 as 7w8 on 2019-06-25 16:18:05pm
Iron Maiden as cp7w6 on 2020-01-11 16:21:48pm
Socrates as 7w8 on 2020-03-14 00:04:16am
Emperor Palpatine as 3w2 on 2019-11-21 15:24:12pm
Star Wars episode V - The Empire Strikes Back as 9wb on 2020-12-07 11:36:34am
EII as 6w5 on 2019-12-27 13:54:03pm
LII as 5w6 on 2019-06-24 16:53:06pm
SEI as 9w1 on 2019-06-24 16:52:08pm
LIE as 3w4 on 2019-06-24 16:51:15pm
SLI as 9w8 on 2019-06-24 16:49:50pm
LSI as 1w2 on 2019-08-02 14:08:31pm
ILE as 7wb on 2019-12-15 14:06:33pm
ESI as 6wb on 2019-12-27 13:56:15pm
Jeffrey "The Dude" Lebowski as 9w8 on 2019-06-24 16:42:23pm
Walter Sobchak as cp6w5 on 2019-06-24 16:40:31pm
Iron Man as 7w8 on 2019-08-18 14:16:11pm
Quakerism as 9w1 on 2019-06-24 14:58:42pm
Jay Gatsby as 3w4 on 2019-06-24 11:58:06am
2w1 as 2w1 on 2019-06-24 11:51:55am
David Hume as 3w2 on 2019-06-24 02:13:09am
Libertarian Free Will as 7w6 on 2020-12-23 17:20:36pm
The Sleep of Reason Produces Monsters as 5w4 on 2019-06-23 23:13:08pm
Christopher Hitchens as cp6w5 on 2019-12-28 21:59:35pm
Shark as 8w9 on 2019-08-31 22:41:05pm
Sauron as 8w9 on 2019-06-23 15:38:09pm
Wreck-It Ralph as 2w3 on 2019-06-25 16:27:16pm
Animal Mother as 8w7 on 2019-06-20 23:54:43pm
Eraserhead as 9w8 on 2019-06-19 00:55:29am
Inko Midoriya as 2w1 on 2019-06-19 00:54:41am
Stain as 1w2 on 2019-06-19 00:53:12am
The Incredibles as 3w2 on 2019-06-18 23:16:20pm
Thomas Paine as 7w6 on 2019-06-18 18:24:44pm
Determinism as 1w9 on 2019-06-18 18:23:34pm
Albus Dumbledore as 2w1 on 2019-07-08 17:41:32pm
Natural History as 5w6 on 2019-06-18 01:48:52am
David Bazan as 9wb on 2020-04-06 15:23:14pm
Religion as 6wb on 2019-09-10 18:57:51pm
Huey Freeman as 1w9 on 2020-12-25 16:22:22pm
Socionics as 5w6 on 2019-06-16 14:15:20pm
Weeaboo / Wapanese as 6w7 on 2019-06-16 02:37:51am
China as 3w2 on 2019-07-27 05:17:09am
Tomoko Kuroki as 3w4 on 2019-06-16 00:26:12am
8w7 as 8w7 on 2019-06-15 16:19:28pm
Miriam Makeba as 9w1 on 2019-06-15 16:08:57pm
Lady X as 4w5 on 2020-12-28 16:55:13pm
paganism as 6w7 on 2019-11-15 18:40:05pm
AC/DC as 7w8 on 2019-06-15 15:21:16pm
The Ramones as 9w8 on 2019-06-17 14:10:45pm
The Sex Pistols as 8w7 on 2020-09-10 10:33:06am
Rage Against the Machine as 8w7 on 2019-06-15 15:05:07pm
The Beatles as 9w1 on 2019-06-17 14:13:04pm
Radiohead as 4w5 on 2020-07-02 17:46:17pm
The Velvet Underground as 9w8 on 2020-08-02 15:13:23pm
Squizgar Skwigelf as 3w4 on 2019-06-15 14:29:28pm
Milo Yiannopoulos (Milo Hanrahan) as 3w4 on 2019-06-15 14:18:39pm
Joe Rogan as 7w8 on 2019-06-15 14:17:41pm
Dream pop as 9w1 on 2019-06-14 15:57:25pm
Romance (romantic fiction) as 2w3 on 2019-06-14 15:55:20pm
Thriller as 6w5 on 2019-06-14 15:53:15pm
Mystery as 5w6 on 2019-06-14 15:51:30pm
Coming-of-Age as 9w1 on 2019-06-14 15:50:59pm
Low fantasy / Magic realism as 9w8 on 2019-06-14 15:48:45pm
Science fiction as 5wb on 2019-06-14 15:45:56pm
Pickles as 9w8 on 2019-06-13 21:01:44pm
Imperialism as cp6w5 on 2019-06-13 20:07:29pm
Black Panther as 6w7 on 2019-07-14 19:51:03pm
Surrealism as 4w5 on 2020-03-15 13:10:43pm
Psychological drama as 4w5 on 2019-06-13 16:08:09pm
Drama as 4w3 on 2020-07-02 13:50:30pm
The Dark Knight Rises as 1w2 on 2019-06-13 15:54:13pm
Pat the Bunny as 5w4 on 2021-01-05 15:19:58pm
Thanos as 8w9 on 2019-06-28 23:55:53pm
Nathan Explosion as 3w4 on 2019-06-11 02:07:46am
William Murderface as 4w3 on 2019-06-13 15:06:11pm
Toki Wartooth as 9w1 on 2019-06-11 01:46:25am
David Lewis as 5w6 on 2019-06-05 18:23:29pm
Engineering Major as 5w6 on 2019-09-04 15:13:43pm
English major as 1w9 on 2019-09-04 15:59:11pm
Billy as 4w3 on 2021-01-08 18:02:45pm
Simon Cowell as 3w4 on 2019-06-03 17:31:22pm
Anti-theism as cp5w6 on 2019-11-22 16:28:09pm
Ontological Argument as 1w9 on 2019-06-03 15:26:21pm
Optimism as 7w6 on 2019-05-29 18:57:59pm
Pessimism as 5w4 on 2019-05-29 18:56:24pm
Intellectualization as 1w9 on 2019-05-26 00:50:26am
Vegeta as 3w4 on 2019-05-23 12:00:59pm
2w3 as 2w3 on 2019-05-20 21:45:16pm
3w2 as 3w2 on 2019-05-20 21:43:35pm
3w4 as 3w4 on 2019-05-20 21:43:04pm
4w3 as 4w3 on 2019-05-20 21:41:52pm
4w5 as 4w5 on 2019-05-20 21:39:49pm
5w4 as 5w4 on 2019-05-20 21:38:42pm
6w7 as 6w7 on 2019-05-20 21:37:23pm
6w5 as 6w5 on 2019-05-20 21:36:02pm
7w6 as 7w6 on 2019-05-20 21:35:30pm
7w8 as 7w8 on 2019-05-20 21:34:29pm
8w9 as 8w9 on 2019-05-20 21:33:40pm
9w8 as 9w8 on 2019-05-20 21:32:42pm
9w1 as 9w1 on 2019-05-20 21:29:26pm
5w6 as 5w6 on 2019-05-20 21:28:45pm
Legolas as 9w8 on 2019-07-08 17:21:38pm
anti-christianism as cp5w6 on 2019-05-14 01:12:50am
Will to Power as 8w9 on 2019-05-12 22:24:23pm
Apatheism as 9w8 on 2019-05-12 18:41:01pm
Schizoid personality disorder as 5w4 on 2019-05-07 23:43:33pm
BDSM as 4w3 on 2020-05-28 16:27:08pm
Cameron Esposito as 7w6 on 2019-05-07 16:23:43pm
Mr. Peanutbutter as 7w6 on 2019-05-07 16:18:34pm
Alan Moore as 5w4 on 2019-05-07 16:17:14pm
Introversion as 5w4 on 2019-05-07 16:14:51pm
Groot as 9w8 on 2019-05-07 15:40:44pm
Christianity as 1w2 on 2020-08-08 12:58:10pm
Protestantism as 6wb on 2019-10-09 21:40:39pm
Philosophy of Religion as 5wb on 2019-12-17 15:31:28pm
Kino as 9w8 on 2019-05-06 16:20:54pm
Polytheism as 6w7 on 2020-01-31 18:16:24pm
Monotheism as 1wb on 2019-08-07 15:49:46pm
Judaism as 6w5 on 2019-05-06 16:08:52pm
Theism as 1w2 on 2019-05-06 15:58:16pm
Lady GaGa as 4w3 on 2019-05-06 15:49:00pm
Jack (The Narrator) as 9w8 on 2019-05-05 18:49:53pm
Obsessive Compulsive Personality Disorder as 1w9 on 2019-05-05 18:19:28pm
Atheism as 5w6 on 2020-12-24 19:53:05pm
Neoliberalism as 3w2 on 2019-10-03 11:53:55am
Neoliberalism as 3w4 on 2019-05-04 22:15:21pm
New Atheism as cp5w6 on 2019-06-23 22:41:30pm
Type One as 1wb on 2019-05-04 20:48:03pm
Wolves as 6w5 on 2019-06-23 21:30:55pm
Megalodon as 8w9 on 2019-05-04 19:45:12pm
T-Rex as 8wb on 2019-06-23 21:18:27pm
Ronnie James Dio as 7w6 on 2019-06-30 02:10:07am
Victim / Creator as 9w1 on 2019-05-04 18:41:56pm
Lil Nas X, Billy Ray Cyrus - Old Town Road as 9w8 on 2019-05-04 18:09:30pm
Drax the Destroyer as 8w7 on 2019-05-02 16:02:36pm
Gamora as 8w9 on 2019-05-02 16:00:40pm
Peter Quill as 7w8 on 2019-05-02 15:58:32pm
Rocket Raccoon as 8w7 on 2019-05-02 15:55:35pm
Nick Furry as 8w9 on 2019-05-02 15:48:31pm
Lungs as 4w3 on 2019-04-30 16:16:18pm
Curse Your Branches as 6w5 on 2020-07-19 13:18:47pm
My Chemical Romance - Welcome To The Black Parade as 4w3 on 2019-04-29 22:16:09pm
Peter Rollins as 7w6 on 2020-02-22 18:45:16pm
Winry Rockbell as 2w1 on 2019-04-29 03:30:46am
Confucius as 1w9 on 2019-04-28 23:35:51pm
Teleology as 1w9 on 2019-04-28 23:00:28pm
Ontology as 5wb on 2020-06-03 16:54:48pm
Louis C. K. as 9w8 on 2019-10-17 08:34:48am
Thog as 9w8 on 2021-01-02 20:33:06pm
Nominalism as 5w6 on 2020-04-03 14:03:31pm
Reliabilist as 9w8 on 2019-04-26 15:20:12pm
1w4 "The Ethicist" as 1wb on 2019-11-24 17:04:09pm
1w4 "The Ethicist" as 2w3 on 2019-04-26 14:09:05pm
Eastern Orthodoxy as 1w9 on 2019-04-26 13:54:40pm
Monty Python's Flying Circus as 7w6 on 2019-04-26 13:53:33pm
4chan as 9w8 on 2020-05-26 21:49:41pm
Jean-Paul Sartre as 5w4 on 2019-04-22 13:56:45pm
Georg Wilhelm Friedrich Hegel as 5w6 on 2019-09-22 19:15:21pm
Ayn Rand as 3w4 on 2019-04-22 13:47:56pm
9w6 "The Stoner" as 9wb on 2020-04-04 13:43:28pm
9w7 "The Hippie" as 9w8 on 2019-04-20 14:56:52pm
Phsc as 5w6 on 2019-04-20 14:56:10pm
9w5 "The Wizard" as 9w1 on 2019-04-20 14:55:10pm
2w5 "The Guide" as 2w1 on 2019-04-20 11:25:38am
2w6 "The Loving Loyalist" as 2w1 on 2019-04-20 11:25:00am
2w7 "The Seductress" as 2w3 on 2019-04-20 11:24:18am
2w8 "The Melodramatic Volcano" as 2w3 on 2019-04-20 11:23:39am
Arthur Schopenhauer as 5w4 on 2019-04-19 16:53:49pm
Jeffrey Lewis as 9w1 on 2019-08-29 13:48:28pm
The Burning Hell as 9w1 on 2019-04-19 16:09:26pm
The Godfather as 8w9 on 2019-04-19 13:45:19pm
Apocalypse Now as cp6w5 on 2019-04-19 13:41:37pm
Isle of Dogs as 4w3 on 2019-08-18 12:10:46pm
The Dark Knight as 6w5 on 2019-04-19 13:33:02pm
The Matrix as 6w5 on 2019-11-14 20:01:41pm
Solo: A Star Wars Story as 6w7 on 2019-04-19 13:26:04pm
South Korea as 3w2 on 2019-04-19 13:16:05pm
Riza Hawkeye as 6w5 on 2019-04-19 13:13:19pm
1-8-9 "The Gut" as 8w9 on 2019-04-15 21:48:55pm
Extroverted Feeling (Fe) as 2w1 on 2019-04-15 18:26:18pm
Introverted Feeling (Fi) as 4w5 on 2019-04-15 18:25:27pm
Introverted Thinking (Ti) as 5w6 on 2019-04-15 18:24:50pm
Extroverted Thinking (Te) as 3w4 on 2019-04-15 18:23:34pm
Introverted Intuition (Ni) as 5w4 on 2019-04-15 18:22:37pm
Introverted Sensing (Si) as 6w5 on 2019-09-09 17:44:05pm
Intuition as 5w4 on 2019-07-15 17:46:05pm
Feeling as 4w3 on 2019-04-15 18:19:20pm
Perceiving as 7wb on 2020-12-19 19:06:13pm
Mischief Brew as 7w8 on 2020-05-28 16:22:13pm
Days n Daze as 7w6 on 2019-06-13 15:33:10pm
Frodo Baggins as 9w1 on 2019-04-15 15:13:55pm
Samwise Gamgee as 6w7 on 2019-04-15 15:13:10pm
Aragorn as 9w1 on 2019-04-15 15:11:31pm
Gandalf as 1w9 on 2019-04-15 15:10:03pm
Boromir as 3w2 on 2019-04-15 15:07:34pm
Elrond as 6w5 on 2019-04-15 15:06:19pm
Gollum / Sméagol / Trahald as 6wb on 2019-07-08 17:12:42pm
Peregrin "Pippin" Took as 7w6 on 2019-04-15 15:03:39pm
Faramir as 6w5 on 2019-07-08 17:16:09pm
Thorin as 3w4 on 2019-04-15 15:02:06pm
Gimli as 8w7 on 2019-07-08 17:25:50pm
Albedo as 2w3 on 2019-08-14 23:09:31pm
Ainz Ooal Gown as 5w6 on 2019-04-15 14:36:38pm
Mike Pence as 6w5 on 2019-04-15 14:34:51pm
North Korea as 8w9 on 2019-04-15 14:34:02pm
Genos as 1w9 on 2019-04-15 14:25:30pm
Charli XCX as 9w8 on 2019-04-15 14:24:07pm
Mumen Rider as 2w1 on 2019-08-17 23:13:42pm
Reddit as 6wb on 2020-03-19 12:58:53pm
Bing Bong as 7w6 on 2019-04-14 23:18:52pm
Indigo children as 4w5 on 2019-04-14 23:15:15pm
Up as 7w6 on 2019-06-13 20:04:14pm
Misa Amane as 2w3 on 2019-12-20 17:09:38pm
INFP as 4w5 on 2019-04-14 20:21:55pm
ISFP as 9wb on 2019-04-14 20:20:33pm
ISTP as 9w8 on 2019-04-14 20:20:16pm
ISFJ as 6wb on 2020-07-03 07:31:06am
ISTJ as 6w5 on 2019-04-14 20:17:35pm
INFJ as 1w9 on 2020-07-19 16:18:07pm
INTJ as 5w6 on 2019-04-14 20:14:56pm
Diane Nguyen as 1wb on 2020-07-29 12:56:48pm
Nite Owl as 6w7 on 2019-04-14 19:39:51pm
Aristotelianism as 1w9 on 2020-12-14 15:59:22pm
Platonism as 1w9 on 2020-12-23 15:00:42pm
Evidentialism as 5w6 on 2019-04-26 13:56:42pm
Externalism as 6w5 on 2019-04-14 18:56:27pm
The Underground Man as 5w4 on 2020-10-12 18:39:07pm
Fideism as 6w5 on 2020-02-21 22:23:52pm
Phil Ochs as 9w1 on 2019-09-04 12:36:58pm
Woody Guthrie as 9w8 on 2019-04-14 16:42:02pm
Kakashi Hatake as 9w8 on 2019-04-12 22:53:02pm
Might Guy as 3w2 on 2019-04-12 22:50:08pm
Rock Lee as 3w2 on 2019-04-12 22:46:06pm
Spike Spiegel as 9w8 on 2019-04-12 21:21:04pm
Faye Valentine as 7w8 on 2019-04-12 21:19:24pm
Jaws as 6w5 on 2019-04-26 15:33:55pm
Baby Driver as 9w8 on 2019-04-26 15:34:44pm
Scott Pilgrim vs the World as 9w1 on 2020-12-21 21:29:13pm
Spirited Away as 3w4 on 2019-04-12 14:32:55pm
Hot Fuzz as 7w6 on 2020-05-30 23:25:10pm
Saving Private Ryan as 6w5 on 2019-04-12 13:55:55pm
Veganism as 9w1 on 2019-04-10 18:15:02pm
Pantheism as 9w1 on 2019-04-10 18:10:32pm
Ego as 6w5 on 2019-04-10 14:35:41pm
Super-ego as 1w2 on 2019-06-25 17:32:51pm
Gon Freecs as 7w8 on 2019-04-10 14:27:22pm
Leorio Paradinight as 2w1 on 2019-08-25 19:44:46pm
Sheldon Cooper as 5w6 on 2019-04-08 14:14:20pm
1w9 "The Sage" as 1w9 on 2019-04-08 12:01:27pm
1w2 "The Haranguer" as 1w2 on 2019-04-08 11:59:49am
3w4 "The Stylist" as 3w4 on 2019-04-08 11:58:50am
2w1 "The Altruist" as 2w1 on 2019-04-08 11:57:43am
3w2 "The Cover Girl" as 3w2 on 2019-07-26 16:15:40pm
4w3 "The Performer" as 4w3 on 2019-04-08 11:54:29am
4w5 "The Outsider" as 4w5 on 2019-04-08 11:53:56am
5w6 "The Sceptic" as 5w6 on 2019-04-08 11:52:21am
6w5 "The Paranoid Android" as 6w5 on 2019-04-08 11:51:04am
6w7 "The Companion" as 6w7 on 2019-04-08 11:49:51am
7w6 "The Kid" as 7w6 on 2019-04-08 11:48:48am
9w8 "The Cat" as 9w8 on 2019-04-08 11:47:24am
9w1 "The Mystic" as 9w1 on 2019-04-08 11:46:03am
7w8 "The Player" as 7w8 on 2019-04-08 11:44:10am
5w4 "The Alien" as 5w4 on 2019-04-08 11:42:36am
Avatar as 3w4 on 2019-04-08 11:39:52am
No Country for Old Men as 8w9 on 2019-06-25 16:33:27pm
No Country for Old Men as 5w6 on 2019-04-05 23:08:19pm
Slayer as 8w7 on 2019-04-05 18:35:02pm
Metallica as 8w7 on 2019-04-05 18:29:59pm
Motorhead as 7w8 on 2019-04-05 18:26:58pm
Pink Floyd as 5w4 on 2019-04-22 22:20:07pm
Diablo Swing Orchestra as 7w8 on 2019-10-14 14:55:49pm
Dead Kennedys as 7w6 on 2020-04-21 23:44:13pm
Black Flag as cp6w5 on 2019-04-05 18:33:41pm
Human Bias Detector as 5w6 on 2019-04-05 17:19:34pm
Human Bias Detector as 5w6 on 2019-04-05 14:56:12pm
3-7-8 "The Mover Shaker" as 7w8 on 2019-04-05 14:40:57pm
2-7-9 "The Peacemaker" as 7w6 on 2019-07-23 05:29:39am
2-6-9 "The Good Samaritan" as 2w1 on 2019-04-05 14:21:57pm
4-7-8 "The Messenger" as 7w8 on 2020-01-12 21:45:30pm
748 - "The Artist Revolutionary" as cp7w6 on 2019-04-05 14:16:44pm
Satan as 8w7 on 2020-04-16 21:06:48pm
Deism as 5w6 on 2020-12-24 20:20:32pm
God as 1wb on 2019-12-14 15:35:15pm
Liberalism as 7w6 on 2019-10-01 13:13:18pm
Riley Freeman as 3w4 on 2019-04-04 20:26:51pm
Buddhism as 9w1 on 2019-04-04 20:20:51pm
Prog Rock as 5w4 on 2019-04-03 21:31:11pm
Indie Rock as 9w1 on 2019-06-14 15:42:48pm
Heavy Metal as 7w8 on 2020-11-23 19:20:29pm
Punk Rock as cp6w5 on 2019-07-15 20:25:49pm
Johny Hobo and the Freight Trains as cp6w5 on 2019-04-03 20:53:55pm
The Eleventh Doctor as 7w6 on 2019-04-03 20:45:59pm
Fight Club as cp6w5 on 2019-04-03 20:42:16pm
Batman Begins as 6w5 on 2019-04-03 20:40:33pm
AJJ (aka Andrew Jackson Jihad) as 4w5 on 2019-04-03 20:33:48pm
Alestorm as 7w8 on 2019-04-03 19:14:34pm
Judas Priest as 7w6 on 2019-04-05 18:11:30pm
Black Sabbath as 9w8 on 2019-04-03 19:05:39pm
Monty Python and the Holy Grail as 7w6 on 2019-04-03 19:01:04pm
Count Olaf as 3w4 on 2019-04-03 18:59:18pm
Arthur Poe "Mr. Poe" as 2w3 on 2019-04-03 18:58:11pm
Klaus Baudelaire as 5w6 on 2019-04-03 18:53:13pm
Robert Boyle as 6w5 on 2019-04-03 18:38:09pm
INTP as 5wb on 2019-04-15 18:14:40pm
Kirigaya Kazuto "Kirito" as 9w8 on 2019-03-28 01:14:24am
Jacques Derrida as 4w3 on 2020-07-04 19:36:17pm
Death Growling as 8w7 on 2019-03-25 15:03:36pm
4-5-6 "The Dark Soul" as 5wb on 2019-12-16 17:51:52pm
Lindsay Ellis as 1w9 on 2019-12-25 21:25:36pm
I Hate Everything as 5w6 on 2019-03-25 00:36:20am
Lyndon B. Johnson as 8w9 on 2019-03-24 23:26:25pm
Bill Clinton as 3w2 on 2019-03-24 23:22:49pm
John F. Kennedy as 7w8 on 2019-03-24 23:20:50pm
Ireland as cp7w6 on 2019-07-23 04:05:27am
The Soviet Union as 8w9 on 2019-03-24 23:14:19pm
Russia as 8w9 on 2019-03-24 23:10:34pm
5-6-7 "The Head" as 7w6 on 2020-04-23 12:14:56pm
Logic as 5w6 on 2019-03-24 18:30:56pm
Ethics as 1w9 on 2019-03-24 18:27:04pm
Absurdism as 4w5 on 2019-08-18 08:37:41am
Epistemology as 5w6 on 2019-05-04 18:29:10pm
Metaphysics as 5w6 on 2020-12-23 17:26:07pm
Phenomenology as 5w6 on 2019-12-17 15:21:36pm
Philosopher as 5wb on 2019-06-03 19:47:26pm
The Silent Generation as 6w5 on 2019-03-23 23:29:40pm
Baby Boomers as 9w8 on 2019-03-23 23:29:01pm
Gottlob Frege as 5w6 on 2019-03-23 22:29:17pm
Ludwig Wittgenstein as 5w4 on 2019-03-23 21:15:31pm
John Locke as 5w6 on 2019-03-22 22:26:26pm
John Locke as 7w6 on 2019-02-27 22:41:24pm
John Locke as 6w5 on 2019-02-27 22:38:51pm
John Locke as 2w3 on 2019-02-27 22:37:47pm
John Locke as 1w2 on 2019-02-27 22:36:03pm
John Locke as 8w7 on 2019-02-27 22:34:23pm
John Locke as 6w7 on 2019-02-27 22:31:08pm
John Locke as 9w1 on 2019-02-27 22:29:05pm
John Locke as 9w1 on 2019-02-27 22:24:17pm
Parrot as 6w7 on 2019-10-10 12:19:49pm
Monarchism as 3w4 on 2019-02-27 16:49:53pm
Lion as 8w7 on 2019-05-04 19:47:05pm
Chicken as 6w7 on 2019-02-27 14:50:04pm
Tiger as 8w9 on 2019-02-27 14:47:09pm
Tiger as 7w6 on 2019-02-26 16:58:52pm
Tiger as 9w8 on 2019-02-26 16:56:29pm
Tiger as cp6w5 on 2019-02-26 16:53:54pm
Tiger as 9w8 on 2019-02-26 16:52:13pm
Tiger as 6w5 on 2019-02-26 16:49:41pm
Tiger as 9w1 on 2019-02-26 16:46:00pm
Tiger as 4w5 on 2019-02-26 16:45:13pm
Tiger as 8w7 on 2019-02-26 16:41:42pm
Tiger as 3w2 on 2019-02-26 16:38:06pm
Tiger as 6w7 on 2019-02-26 16:27:09pm
Travis Bickle as cp6w5 on 2019-02-26 16:07:43pm
Tommy Wiseau as 3w2 on 2019-02-26 00:58:28am
Gottfried Wilhelm Leibniz as 5w6 on 2019-02-26 15:46:04pm
Augustine as 6w5 on 2019-07-28 19:04:51pm
Anselm of Canterbury as 1w9 on 2020-02-25 13:59:04pm
Hinduism as 1w9 on 2019-04-02 15:45:26pm
Bernie Sanders as 1w2 on 2019-02-25 18:11:54pm
Authoritarianism as 6w5 on 2019-05-05 00:22:31am
The Republican Party as cp6w5 on 2019-10-01 12:53:17pm
Dyslexia as 7w6 on 2019-02-25 17:50:54pm
Winston Churchill as 8w9 on 2019-02-25 17:49:21pm
Gottfried Wilhelm Von Leibnitz as 5w6 on 2019-02-26 15:47:41pm
Bartholomew JoJo "Bart" Simpson as 7w8 on 2019-02-25 15:32:50pm
Homer Simpson as 9w8 on 2019-02-25 15:29:48pm
Jerk with a heart of gold as 8w9 on 2019-02-25 15:26:58pm
Mary Sue as 3w2 on 2019-02-25 15:22:30pm
damsel in distress as 9w1 on 2019-02-25 15:23:36pm
3-7-8 "The Messenger" as 7w8 on 2020-10-30 15:15:58pm
2-7-8 "The Free Spirit" as 7w8 on 2019-02-25 15:09:02pm
3-7-9 "The Ambassador" as 7w6 on 2019-09-25 17:14:02pm
The Academic Jock as 3w2 on 2019-02-25 14:55:08pm
The Skater as 9w8 on 2019-02-25 14:52:42pm
The Dropout as 9w8 on 2019-02-25 14:41:37pm
The Cheerleader as 3w2 on 2019-02-25 14:37:45pm
The Daily Vlogger as 3w2 on 2019-02-25 14:36:07pm
Bully as cp6w7 on 2020-01-04 15:16:31pm
Postmodernism as 7w6 on 2019-11-19 20:12:37pm
3-6-9 "The Mediator" as 9w1 on 2020-01-18 00:03:50am
2-5-9 "The Problem Solver" as 9w1 on 2019-02-22 23:55:59pm
2-6-8 "The Rescuer" as 8w9 on 2020-04-01 11:11:51am
4-7-9 "The Gentle Spirit" as 7w6 on 2019-02-22 23:37:22pm
1-3-7 "The Systems Builder" as 3w4 on 2020-01-03 10:29:01am
2001: A Space Odyssey as 5w4 on 2019-02-22 20:20:36pm
WALL·E as 2w1 on 2019-02-22 20:06:15pm
Pi as 5w4 on 2019-02-22 20:01:13pm
Taxi Driver as 6w5 on 2020-03-31 23:51:44pm
Avengers: Infinity War as 3w4 on 2020-07-05 22:44:06pm
The Shining as 5w4 on 2019-10-11 17:36:51pm
Ready Player One as 7w6 on 2019-02-22 14:47:23pm
The Godfather: Part II as 8w9 on 2019-02-22 14:50:12pm
Spider-Man: Into the Spider-Verse as 6w7 on 2019-04-05 23:03:50pm
Fear and Loathing in Las Vegas as cp7w6 on 2020-12-05 20:24:25pm
Mad Max: Fury Road as 8w9 on 2019-08-02 19:55:55pm
Star Wars episode VI - Return of the Jedi as 9w1 on 2019-02-22 14:31:43pm
Star Wars: Episode IV - A New Hope as 9w1 on 2019-02-22 14:20:16pm
Donnie Darko as 4w5 on 2019-02-22 14:15:31pm
Shaggy Rogers as 9w8 on 2019-02-21 22:05:26pm
Type Two as 2wb on 2019-05-04 20:47:46pm
Type Eight as 8wb on 2019-05-04 20:45:34pm
Type Four as 4wb on 2019-05-04 20:46:41pm
Type Five as 5wb on 2019-05-04 20:46:33pm
Type Three as 3wb on 2019-05-04 20:47:07pm
Type Nine as 9wb on 2019-05-04 20:45:26pm
Type Six as 6wb on 2019-05-04 20:46:26pm
Type Seven as 7wb on 2019-05-04 20:46:07pm
Type Seven as 7w6 on 2019-02-21 19:22:15pm
Type Seven as 3w4 on 2019-02-21 19:21:02pm
Type Seven as 7w8 on 2019-02-21 19:19:18pm
Type Seven as 2w1 on 2019-02-21 19:18:14pm
Type Seven as 4w5 on 2019-02-21 19:16:34pm
Type Seven as 3w2 on 2019-02-21 19:15:26pm
Type Seven as 9w1 on 2019-02-21 19:13:31pm
Type Seven as 7w6 on 2019-02-28 16:38:21pm
Type Seven as 1w9 on 2019-02-21 19:09:31pm
Type Seven as 5w4 on 2019-02-28 16:33:56pm
Type Seven as 4w5 on 2019-02-21 19:05:57pm
Type Seven as 7w6 on 2019-02-28 16:31:30pm
Black Panther/T'Challa as 1w9 on 2019-07-05 21:47:35pm
Baruch Spinoza as 1w9 on 2020-02-25 12:22:09pm
Harry Potter as 9w8 on 2019-02-19 21:39:56pm
Odysseus as 3w4 on 2020-01-12 14:34:10pm
Draco Malfoy as 3w4 on 2019-02-19 21:30:36pm
Hermione Granger as 1w2 on 2019-02-19 21:27:03pm
James Bond series (Most of them) as 3w4 on 2019-02-19 18:43:02pm
Percy Weasley as 1w9 on 2019-02-19 18:26:48pm
Teru Mikami as 7w8 on 2020-03-15 13:31:51pm
Pulp Fiction as 7w8 on 2019-02-18 00:52:38am
Everything Will Be OK as 4w5 on 2019-02-18 00:50:55am
YouTube as 7w6 on 2019-02-16 14:46:31pm
Neoconservatism as cp6w5 on 2019-04-04 23:09:27pm
Antinatalism as 5w4 on 2020-09-22 17:03:06pm
Student Body President as 3w2 on 2019-02-11 21:37:59pm
The Gamer as 9w8 on 2019-02-11 21:36:41pm
Overbearing Teacher as 1w2 on 2019-02-11 21:34:45pm
The Social Justice Warrior as 1w2 on 2020-08-04 19:23:58pm
Buckethead (Brian Patrick Carroll ) as 5w4 on 2019-02-11 21:22:13pm
T. E. Lawrence as 3w2 on 2019-02-11 21:18:15pm
Santa Claus as 2w1 on 2019-02-11 21:15:01pm
bridesmaid as 2w3 on 2019-02-11 00:16:53am
groom as 8w9 on 2019-02-11 00:12:50am
bride as 2w3 on 2019-02-11 00:08:54am
priest as 2w1 on 2019-02-11 00:04:09am
1-2-6 "The Supporter" as 2w1 on 2020-08-14 16:25:47pm
3-5-9 "The Thinker" as 5w6 on 2019-02-10 17:09:27pm
1-4-6 "The Philosopher" as 1w9 on 2019-10-11 18:43:41pm
1-3-6 "The Taskmaster" as 6w5 on 2019-02-10 17:04:46pm
5w1 "The Intellectual" as 5w6 on 2019-02-10 16:53:53pm
Lou Reed as 9w8 on 2019-02-10 16:47:02pm
Lou Reed as 5w6 on 2019-02-10 16:41:45pm
Lou Reed as 4w5 on 2019-02-10 16:40:26pm
Dolores Umbridge as 3w2 on 2019-02-10 16:21:48pm
EVFL (Pasternak) as 2w3 on 2019-06-27 20:13:03pm
FVEL (Chekhov) as 9w8 on 2019-02-09 20:58:45pm
Self-Preservation 5 as 5w6 on 2019-02-09 20:19:43pm
Social 5 as 5w6 on 2019-02-09 20:17:20pm
Fascism as cp6w5 on 2020-04-19 14:51:55pm
Socialism as 2w1 on 2019-02-09 20:10:55pm
Ozzy Osbourne as 7w8 on 2019-08-22 23:13:59pm
Franz Kafka as 5w4 on 2019-02-09 19:22:13pm
Hunter S. Thompson as 7w8 on 2019-02-09 19:18:26pm
Henry David Thoreau as 9w1 on 2019-02-09 19:10:10pm
ELVF (Andersen) as 4w5 on 2019-02-09 19:02:27pm
EFVL (Pushkin) as 9w1 on 2019-06-27 20:00:27pm
VFEL (Twardowski) as 8w9 on 2019-11-30 13:06:34pm
EFLV (Bukharin) as 9w8 on 2019-04-08 14:52:19pm
FLEV (Epicurus) as 9w8 on 2019-02-09 15:36:13pm
FLVE (Aristippus) as 8w9 on 2019-06-27 19:48:24pm
Libertarianism as cp5w6 on 2019-04-04 20:12:32pm
Aesling "Ash" as 9w1 on 2020-06-26 14:21:03pm
Communism as 6w5 on 2020-12-08 14:21:50pm
Totalitarianism as cp6w5 on 2019-07-26 01:17:48am
Sherlock Holmes as 5w6 on 2019-02-08 22:42:32pm
G. K. Chesterton as 7w6 on 2019-02-08 17:50:58pm
Ambiversion as 4w3 on 2020-12-19 18:51:02pm
Judging as 1w2 on 2019-07-15 17:41:57pm
Thinking as 5w6 on 2019-02-06 16:55:28pm
Jungian Ne Type as 7w6 on 2019-02-06 14:57:17pm
Jungian Si Type as 6w5 on 2019-02-06 14:55:02pm
Jungian Te Type as 3w4 on 2019-02-06 14:53:41pm
Jungian Se Type as 7w8 on 2019-02-06 14:51:26pm
Jungian Ni Type as 5w4 on 2019-02-06 14:49:17pm
Jungian Ti type as 5w6 on 2019-02-06 14:47:44pm
Autism as 5w6 on 2019-02-06 14:42:45pm
best man as 6w7 on 2019-02-06 14:41:19pm
Jungian Fi type as 4w5 on 2019-02-04 15:07:47pm
The Golden One as 3w4 on 2019-02-04 14:23:13pm
Kylo Ren as 4w3 on 2019-05-04 18:52:40pm
Jar Jar Binks as 7w6 on 2019-02-02 16:42:59pm
James Moriarty as 7w6 on 2019-02-02 16:40:03pm
Bill Burr as cp6w7 on 2019-09-13 17:56:14pm
Jerry Smith as 6w7 on 2019-11-20 20:24:29pm
Rick Sanchez as 7w8 on 2019-02-01 19:18:29pm
Tumblr as 4w3 on 2019-02-01 19:16:22pm
John Hammond as 7w6 on 2019-02-01 01:41:07am
Boba Fett as 9w8 on 2019-02-01 01:37:41am
Chewbacca as 9w8 on 2019-02-09 01:54:06am
Leia Organa as 1w2 on 2019-02-01 01:35:12am
John Watson as 6w5 on 2019-02-01 01:33:36am
Sherlock Holmes as cp5w6 on 2019-08-18 14:18:49pm
Reese Wilkerson as 8w7 on 2019-07-19 18:32:11pm
Lois Wilkerson as 1w2 on 2019-02-01 01:12:17am
FELV (Borgia) as 9w8 on 2019-02-01 01:03:44am
FEVL (Dumas) as 9w8 on 2020-01-08 16:34:52pm
Social constructionism as 6w5 on 2019-02-01 00:52:04am
Aristotle as 1w9 on 2020-04-04 17:45:27pm
FVLE (Goethe) as 9w8 on 2019-06-27 19:54:00pm
Self-Control as 1w9 on 2019-01-31 15:10:34pm
Italy as 2w3 on 2019-01-30 04:06:58am
Germany as 6w5 on 2019-12-07 16:35:21pm
Quint as 8w9 on 2019-01-30 03:55:09am
Mayor Vaughn as 3w2 on 2019-01-30 03:52:47am
Martin Brody as 6w5 on 2019-01-30 03:49:30am
England as 6w5 on 2019-08-09 19:09:09pm
Michel de Montaigne as 7w8 on 2019-01-30 01:31:09am
Catholicism as 1wb on 2019-06-15 15:30:51pm
Philip K. Dick as 5w4 on 2019-01-29 16:40:20pm
Evangelical Protestant as 6w7 on 2019-01-29 16:35:30pm
Wikipedia as 5w6 on 2019-01-29 16:23:12pm
Moritz Schlick as 5w6 on 2019-01-29 02:32:26am
Marxism as 8w9 on 2019-01-29 00:37:33am
Texas as cp6w5 on 2019-01-29 00:34:41am
John Olver as 7w6 on 2019-04-02 14:42:39pm
H. P. Lovecraft as 5w4 on 2019-01-29 00:08:29am
Azula as 3w4 on 2019-01-28 22:47:43pm
Aang as 7w6 on 2019-01-28 22:36:18pm
Iroh as 9w1 on 2019-01-28 22:08:55pm
Anita Sarkeesian as 1w9 on 2019-07-01 22:31:33pm
United States of America as 3w2 on 2019-11-22 22:44:50pm
Nazi Germany as cp6w5 on 2019-01-28 16:12:03pm
France as 7w6 on 2019-09-23 14:13:19pm
Japan as 1w9 on 2019-01-28 16:06:20pm
René Descartes as 5w6 on 2019-02-09 23:34:22pm
Samuel Taylor Coleridge as 7w6 on 2019-01-26 20:49:59pm
Jimi Hendrix as 9w8 on 2019-01-26 20:13:23pm
Type 5 with best social skills as 5w4 on 2019-01-26 00:22:19am
George Lucas as 9w1 on 2019-05-04 22:14:04pm
Qui-Gon Jinn as 9w8 on 2019-01-26 00:08:19am
Max Cohen as 5w4 on 2019-01-25 23:58:43pm
Ozymandias as 3w4 on 2019-01-25 22:59:34pm
The Comedian as 7w8 on 2019-01-25 22:44:02pm
Dr Manhattan as 5w4 on 2019-01-25 22:41:09pm
Rorschach as 1wb on 2019-04-14 19:44:17pm
Nihilism as 5w4 on 2019-01-25 22:22:55pm
Ricardo López (Björk Stalker) as 4w5 on 2019-01-25 21:35:37pm
Bear as 8w9 on 2019-06-23 21:21:23pm
Human as 6w5 on 2019-03-23 23:26:12pm
Domestic dog as 6w7 on 2019-01-25 21:25:06pm
Woman (female human) as 2w3 on 2020-06-02 14:35:04pm
Man (Male human) as 9w8 on 2019-05-04 19:49:19pm
Domestic cat (Felis silvestris catus / Felis catus) as 9w8 on 2019-12-20 22:04:34pm
L Lawliet as 5w4 on 2019-11-15 23:58:17pm
Ryuk as 7w8 on 2019-01-24 01:25:09am
Alexander the Great as 3w4 on 2019-07-08 16:56:18pm
Superman/Clark Kent as 2w1 on 2019-02-20 23:37:06pm
Batman/Bruce Wayne as 1w9 on 2019-01-24 01:00:10am
The Joker as 7w8 on 2019-08-31 14:24:37pm
Sonic the Hedgehog as 7w8 on 2019-01-24 00:50:38am
tman as 5w4 on 2019-07-05 20:14:20pm
Asperger's Syndrome as 5w6 on 2019-01-20 20:50:55pm
Molly Weasley as 2w1 on 2019-01-20 20:46:06pm
Frank "Hobo Johnson" Lopes Jr. as 4w3 on 2019-01-18 00:02:53am
The Tomboy as 7w8 on 2019-01-17 06:00:18am
The School Prankster as 7w8 on 2019-01-17 03:27:41am
The Fandom Geek as 6w5 on 2019-02-25 14:45:47pm
The Emo as 4w3 on 2019-01-17 03:23:14am
Teacher's Pet as 2w3 on 2019-01-17 03:21:19am
The Prep as 3w4 on 2019-01-17 03:20:02am
Artsy/Creative Kid as 4w3 on 2019-01-20 21:06:01pm
The School Debater as 6w5 on 2019-04-30 15:54:28pm
The Class Clown as 7w6 on 2019-01-17 03:16:38am
The Party Animal as 7w8 on 2019-01-17 03:15:01am
The Popular Mean Girl as 3w2 on 2019-01-17 03:13:43am
Apathetic Misfit as 9w8 on 2019-08-25 23:53:32pm
The Computer Geek as 5w6 on 2019-01-17 03:11:58am
The Dumb Jock as cp6w7 on 2020-03-25 18:03:33pm
Corkus as 6w7 on 2019-11-03 14:54:55pm
Caska as 6w5 on 2019-01-17 03:06:59am
Griffith as 3w4 on 2019-01-17 03:06:07am
Guts as 8w9 on 2019-02-25 18:18:03pm
Kyle Kallgren as 4w5 on 2019-01-17 02:54:50am
Thomas Hobbes as 6w5 on 2019-01-16 17:19:49pm
Anton LaVey as 3w4 on 2019-11-23 21:41:42pm
Albert Camus as 9w8 on 2019-02-26 00:53:51am
Edgar Allan Poe as 5w4 on 2019-01-16 03:46:50am
Sigmund Freud as 5w6 on 2019-07-31 04:00:30am
Generalized anxiety disorder as 6w5 on 2019-07-14 21:32:27pm
Todd Chavez as 9w1 on 2019-01-15 02:42:52am
Izuku Midoriya as 6w5 on 2019-01-15 02:30:15am
All Might as 3w2 on 2019-08-25 10:38:29am
Princess Carolyn as 3w4 on 2019-10-10 11:30:18am
Andrew Jackson as 8w7 on 2019-01-15 01:12:57am
Benjamin Franklin as 7w8 on 2019-01-15 01:10:45am
Capitalism as 3wb on 2019-10-04 12:11:40pm
Nationalism as 6w5 on 2019-01-15 01:05:39am
Anarchism as cp7w6 on 2020-04-23 12:11:28pm
Donald Trump as 3w2 on 2019-01-15 00:54:41am
Attention Deficit Hyperactivity Disorder as 7w6 on 2019-01-14 04:17:06am
Attention Deficit Hyperactivity Disorder as 9w1 on 2019-01-14 03:11:44am
1-4-7 "The Visionary" as 4w3 on 2020-03-13 23:53:43pm
4-6-8 "The Truth Teller" as cp6w5 on 2020-12-23 16:06:35pm
3-5-8 "The Solution Master" as 3w4 on 2019-04-05 14:41:56pm
4-5-9 "The Contemplative" as 4w5 on 2019-09-03 19:20:05pm
1-2-5 "The Mentor" as 1w2 on 2019-10-16 13:08:37pm
4-6-9 "The Seeker" as 4w5 on 2019-01-12 23:00:44pm
1-2-7 "The Teacher" as 2w1 on 2019-02-25 15:12:57pm
1-3-5 "The Technical Expert" as 5w6 on 2020-04-01 11:04:00am
3-6-8 "The Justice Fighter" as 8w9 on 2020-11-14 18:43:11pm
4-5-8 "The Scholar" as 5w4 on 2019-01-12 22:51:58pm
Darth Vader as 8w9 on 2019-01-12 22:39:32pm
Obi Wan Kenobi as 6w5 on 2019-01-12 22:37:46pm
Lando Calrissian as 3w2 on 2019-12-10 12:05:45pm
Anakin Skywalker as 8w7 on 2019-06-24 17:43:09pm
C3PO as 6w7 on 2019-06-11 01:52:46am
Padmé Amidala as 2w1 on 2019-01-12 22:25:38pm
Finn as 6w7 on 2019-01-12 22:23:58pm
Yoda as 9w1 on 2019-02-02 16:41:51pm
Luke Skywalker as 9w1 on 2019-01-12 22:17:21pm
Han Solo as 7w8 on 2019-02-02 16:44:53pm
Diogenes of Sinope as 9w8 on 2019-01-14 05:25:31am
Shikamaru Nara as 5w6 on 2019-01-10 22:02:49pm
Sakura Haruno as 2w1 on 2019-04-04 20:14:15pm
Sasuke Uchiha as 3w4 on 2019-01-10 21:56:50pm
Naruto Uzumaki as 3w2 on 2019-01-10 21:54:02pm
Rokuro "Rock" Okajima as 6w5 on 2020-02-26 10:31:42am
Joan of Arc as 1w2 on 2019-01-10 21:47:45pm
George Orwell as 6w5 on 2019-07-22 23:03:48pm
Jesus Christ / Yeshua as 1w2 on 2019-01-10 21:39:32pm
St. Paul of Tarsus as 6w5 on 2021-01-13 17:55:23pm
VFLE (Napoleon) as 8w7 on 2019-01-10 21:26:26pm
Hufflepuff as 9w1 on 2019-02-26 16:18:29pm
Gryffindor as 7w8 on 2019-08-27 21:57:37pm
Ravenclaw as 5w4 on 2019-06-23 21:42:34pm
J.R.R. Tolkien as 9w1 on 2019-01-10 02:47:53am
LEVF (Pascal) as 5w4 on 2019-06-23 23:20:17pm
VEFL (Tolstoy) as 2w1 on 2019-04-08 15:01:47pm
VLFE (Lenin) as 3w4 on 2019-04-08 14:49:17pm
LFVE (Plato) as 6w5 on 2020-12-02 22:28:24pm
LFEV (Berthier) as 6w5 on 2019-02-01 01:04:09am
Nunnally Lamperouge as 2w1 on 2019-01-10 00:38:59am
Lelouch Lamperouge as 3w4 on 2019-01-10 00:36:20am
United States of America as 6w7 on 2019-07-23 20:16:53pm
Buddha (Siddhārtha Gautama) as 9w1 on 2019-01-10 00:31:09am
Thomas Aquinas as 5w6 on 2019-01-10 00:26:25am
Mikasa Ackerman as 6w5 on 2019-01-07 04:36:19am
Toph Bei Fong as 8w7 on 2019-01-07 00:24:35am
Existentialism as 4w5 on 2019-01-02 07:40:47am
Secular Humanism as 7w6 on 2019-02-10 23:54:43pm
Stoic as 1w9 on 2019-01-02 03:42:25am
Natalie Wynn as 4w3 on 2019-06-03 18:01:15pm
Luigi as 6w7 on 2019-01-01 12:01:28pm
VLEF (Socrates) as cp6w5 on 2019-10-20 10:47:52am
Pythagoras as 5w4 on 2021-01-04 15:54:05pm
Taran as 7w6 on 2018-12-30 18:09:29pm
Anna as 7w6 on 2018-12-30 18:00:05pm
Parmenides as 5w4 on 2018-12-30 14:47:43pm
Deadpool / Wade Wilson as 7w8 on 2018-12-26 14:52:02pm
Loki Laufeyson as 3w2 on 2018-12-26 14:49:47pm
Loki Laufeyson as 5w4 on 2018-12-26 14:31:34pm
William Clifford as 5w6 on 2018-12-21 00:47:19am
LVFE (Lao Tzu) as 5w6 on 2019-02-08 15:24:18pm
Extroverted Sensing (Se) as 8wb on 2019-10-01 19:45:37pm
Extroverted Intuition (Ne) as 7w6 on 2018-12-09 21:44:13pm
Søren Kierkegaard as 4w5 on 2018-12-03 18:58:40pm
Katara as 2w1 on 2018-12-03 17:23:17pm
Sokka as 6w5 on 2019-01-28 22:04:35pm
Zuko as 3w4 on 2019-06-28 19:58:12pm
Plato as 1w9 on 2018-12-03 17:12:35pm
Alex Jones as cp6w7 on 2020-01-16 13:14:52pm
Richard Dawkins as 5w6 on 2018-12-01 16:26:46pm
Tyler Durden as 8w7 on 2018-11-28 15:42:22pm
Nostalgia Critic as 7w6 on 2020-03-14 11:18:13am
Slytherin as 3w4 on 2018-11-27 19:38:35pm
Doctor Strange/Stephen Strange as 3w4 on 2019-10-13 18:49:26pm
Thor as 7w8 on 2019-08-30 19:00:59pm
Spider-Man/Peter Parker as 6w7 on 2018-11-27 00:06:36am
Captain America/Steve Rogers as 1w9 on 2019-06-27 19:37:00pm
Iron Man/Tony Stark as 7w8 on 2018-11-27 00:02:33am
C.S Lewis as 1w9 on 2019-01-09 22:49:37pm
Spock as 1w9 on 2019-07-12 20:27:49pm
Continental Philosophy as 5w4 on 2020-08-21 13:13:52pm
Analytic Philosophy as 5w6 on 2018-11-19 21:02:14pm
Empiricism as 5w6 on 2021-01-13 10:49:22am
Rationalism as 5w6 on 2019-01-25 22:16:26pm
Director Ton as 8w9 on 2019-04-05 17:23:57pm
Retsuko as 6w5 on 2019-04-05 17:22:39pm
Tony Iommi as 3w4 on 2019-10-04 16:29:42pm
William Shakespeare as 4w3 on 2018-11-19 15:28:37pm
Light Yagami as 1w9 on 2020-05-14 11:52:46am
Marilyn Manson as 4w5 on 2018-11-18 21:03:02pm
Bob Marley as 9w1 on 2018-11-18 21:00:53pm
Joy as 7w6 on 2018-11-18 20:43:03pm
Sadness as 4w5 on 2018-11-18 20:40:53pm
Riley Andersen as 9w1 on 2018-11-18 20:39:45pm
Anger as 8w7 on 2018-11-18 20:38:04pm
Fear as 6w5 on 2018-11-18 20:37:07pm
Mr. Peanutbutter as 7w6 on 2019-01-15 02:41:47am
BoJack Horseman as 7w6 on 2019-04-14 23:15:43pm
Kyr Fiore as 7w6 on 2019-11-07 20:21:39pm
Markus Velafi as 7w6 on 2020-04-06 19:27:02pm
Gregor Hartway as 1w9 on 2019-06-17 17:40:39pm
Essentialism as 5w6 on 2019-01-31 15:09:41pm
Armin Arlert as 6w5 on 2019-06-03 18:05:44pm
LEFV (Augustine) as 9w1 on 2019-06-14 13:26:13pm
LVEF (Einstein) as 5wb on 2019-08-15 16:35:26pm
Friedrich Nietzsche as 5w4 on 2018-11-16 15:42:59pm
Jordan Peterson as 1w9 on 2019-12-01 20:59:31pm
1-4-5 "The Researcher" as 5w4 on 2020-06-18 17:31:41pm
Rebecca "Revy" Lee as 8w7 on 2018-11-16 13:54:03pm
Theodore Roosevelt as 8w7 on 2018-11-16 10:14:36am
George Carlin as cp6wb on 2020-07-17 11:08:19am
Ben Shapiro as 3wb on 2020-03-22 14:10:02pm